ECMWFNIL_850_spd_000.txt.gz
Wind_Speed
16 14 13 12 12 12 12 13 14 15 18 20 22 24 25 26 25 23 21 20 20 20 19 19 18 16 15 17 20 25 31 35 35 33 32 33 35 37 38 39 43 45
16 14 14 13 13 14 14 15 15 17 18 20 22 24 26 29 29 27 25 24 23 22 22 21 20 18 16 16 16 19 24 30 37 37 35 34 35 36 37 38 41 45
16 15 14 15 15 17 17 18 18 19 21 22 23 25 27 29 30 30 28 26 25 25 24 23 22 20 19 18 16 17 19 22 29 35 38 37 35 35 38 40 41 42
16 16 16 17 18 19 20 21 22 22 23 24 25 26 28 29 29 28 27 26 26 26 26 25 24 24 22 20 18 18 18 19 21 26 34 38 37 35 35 38 41 41
16 16 17 18 20 22 23 24 25 25 26 27 26 27 27 26 25 24 24 24 25 26 27 26 26 25 24 23 23 21 20 20 19 20 27 35 39 37 35 35 38 40
16 17 19 21 22 24 25 26 26 26 26 25 23 23 23 21 21 22 22 23 24 25 25 26 26 25 25 24 25 24 22 21 20 19 23 29 35 38 37 36 37 39
18 19 20 22 24 25 27 27 23 21 21 21 19 19 20 20 20 19 20 22 24 25 24 24 25 25 25 25 24 24 24 25 24 23 23 25 30 35 37 37 38 40
19 21 22 24 25 26 27 26 20 16 16 17 18 17 18 19 20 18 18 19 22 24 25 25 25 25 25 25 26 27 27 27 26 26 26 26 28 32 36 36 37 40
21 22 24 25 26 27 26 22 17 15 15 16 16 16 17 18 19 19 19 19 22 25 27 28 28 28 28 28 28 29 30 30 29 28 29 29 29 31 33 35 37 39
21 23 25 25 27 25 21 17 17 16 16 16 18 20 20 20 20 21 20 20 23 25 26 28 29 30 31 31 30 30 31 32 32 32 31 30 31 32 31 34 38 39
22 24 25 26 25 21 17 17 18 17 16 17 20 23 24 23 23 23 23 24 26 26 27 29 30 31 32 32 32 32 32 33 34 36 35 33 32 33 33 33 36 40
22 23 25 24 20 17 16 17 17 18 19 20 22 25 25 25 24 23 25 28 30 30 31 31 32 33 34 35 36 35 34 34 33 35 38 38 35 33 34 35 35 38
21 22 23 20 16 15 16 17 18 19 21 22 22 23 24 24 24 24 25 28 31 32 32 32 33 34 35 36 37 36 36 36 35 34 36 38 37 35 35 36 36 36
20 20 19 16 14 15 16 17 19 20 21 21 20 20 21 23 24 25 26 27 30 33 33 33 33 33 34 35 36 37 36 36 36 35 35 35 36 37 36 36 37 37
18 17 15 13 13 15 16 18 19 20 20 20 21 21 21 23 25 25 26 28 30 31 32 32 33 34 36 37 37 38 37 36 36 36 35 34 33 36 38 37 37 37
16 14 13 13 15 16 17 18 19 20 20 20 21 22 22 24 25 25 26 29 30 30 31 32 34 36 38 39 39 39 37 35 34 33 33 34 33 34 38 38 38 38
14 12 12 13 15 17 17 18 18 19 20 21 21 22 23 24 25 26 27 28 29 30 31 32 34 37 39 39 40 41 40 37 35 32 31 32 33 34 36 38 37 37
11 11 12 13 15 16 16 17 19 20 20 21 22 23 24 24 25 26 27 27 27 29 29 30 33 36 38 39 39 40 41 40 39 37 34 32 32 33 35 37 36 35
10 11 12 13 14 15 16 18 20 20 21 22 23 23 24 26 27 28 28 28 28 29 29 29 30 32 35 38 39 39 40 40 40 41 40 37 35 35 35 36 36 35
10 11 12 13 14 15 17 19 20 21 22 23 24 25 26 29 31 32 33 32 29 29 29 30 31 33 34 36 37 38 39 39 41 42 42 40 39 39 38 36 36 36
10 12 13 13 14 16 19 21 21 22 23 23 24 26 29 32 34 35 35 33 30 28 29 30 32 34 36 37 37 37 37 38 40 43 43 41 39 40 43 40 36 36
11 13 14 14 16 18 20 21 22 23 23 23 24 26 28 31 34 34 32 32 30 29 29 30 30 32 35 38 38 37 37 37 39 41 41 42 40 39 43 45 41 37
12 13 15 15 17 19 21 22 24 25 24 23 23 24 26 28 29 29 28 29 30 30 31 32 32 32 34 37 38 37 37 37 38 39 39 41 43 41 40 44 46 42
12 14 15 16 18 20 21 23 26 26 24 21 21 24 27 28 27 26 27 28 29 32 34 35 36 36 36 37 38 36 37 38 38 38 38 38 43 44 40 41 46 46
12 14 16 17 19 20 21 24 28 27 23 23 24 26 28 27 25 25 27 29 31 33 34 34 37 38 35 36 38 36 36 38 38 38 39 38 39 40 38 38 41 43
12 14 16 17 19 20 21 25 29 28 25 25 28 27 26 25 25 25 28 33 32 30 29 31 34 36 32 32 36 35 36 38 38 38 39 39 37 36 36 35 36 38

ECMWFNIL_850_spd_003.txt.gz
Wind_Speed
17 16 15 14 13 13 12 11 12 12 13 14 15 16 19 20 22 23 25 26 27 27 25 23 21 20 20 22 24 23 21 21 22 24 27 29 30 32 34 35 34 35
18 17 16 15 14 14 14 13 14 14 14 16 17 18 20 22 24 26 28 29 30 31 29 26 24 22 22 22 24 26 24 22 22 23 26 29 31 32 33 34 35 37
19 18 17 16 16 15 15 15 15 16 17 18 20 21 21 23 25 26 28 28 29 31 29 25 22 21 22 23 23 25 26 24 22 21 22 26 30 32 33 34 33 34
20 19 18 17 17 17 16 17 17 18 19 21 21 22 23 23 23 25 26 24 25 26 23 19 18 18 20 22 22 23 27 28 25 22 22 24 26 29 33 35 33 33
21 20 19 18 18 18 18 18 19 20 21 22 23 24 23 19 16 20 23 20 20 20 17 15 16 17 19 20 21 23 25 28 28 25 23 24 24 25 29 33 35 35
21 20 19 19 19 19 19 20 21 22 23 24 23 22 20 17 16 19 20 19 18 18 17 17 16 17 18 20 21 22 23 26 28 27 25 25 25 25 26 30 33 36
22 21 20 20 20 20 21 21 22 23 23 20 18 17 17 17 19 19 18 19 19 19 18 18 17 18 18 18 21 23 23 24 26 27 27 26 26 25 26 28 30 33
22 21 20 20 19 20 21 21 22 22 20 16 16 16 17 17 18 19 19 19 19 19 18 18 18 19 18 19 21 23 24 25 25 26 28 28 27 26 26 28 29 31
22 21 20 19 19 20 21 21 21 20 18 16 17 17 18 19 19 20 20 20 20 19 18 18 18 18 18 20 22 22 23 25 26 27 29 31 31 29 28 28 30 32
20 19 18 19 19 20 21 21 20 19 18 17 18 18 19 20 20 20 21 21 20 20 19 19 19 19 19 21 22 21 21 24 27 29 31 34 35 35 33 30 29 31
18 17 17 18 19 20 20 20 20 20 19 18 18 19 20 21 20 20 20 20 20 20 20 20 20 20 21 21 21 21 22 24 27 29 31 34 36 39 39 37 33 31
15 16 17 18 19 19 20 21 20 20 19 18 18 19 20 21 21 21 22 23 22 21 21 22 21 21 21 22 22 22 23 26 26 28 31 33 35 38 40 42 41 38
13 14 16 18 19 19 21 21 20 19 18 17 18 20 20 21 22 22 22 23 22 22 23 23 22 22 22 22 22 22 23 25 26 27 30 33 35 37 39 41 44 45
13 14 16 18 19 19 19 18 17 17 17 17 18 20 20 21 21 21 21 21 21 22 22 22 21 22 22 22 22 22 22 24 25 26 30 34 36 37 38 40 42 46
13 14 15 16 15 15 15 15 16 17 17 18 19 20 20 20 21 21 21 22 22 23 22 21 22 22 22 23 24 23 22 22 23 24 28 32 35 36 37 39 41 43
10 11 12 12 12 12 13 15 16 17 18 18 19 20 20 21 21 22 22 23 24 25 24 22 22 23 25 29 30 29 27 25 23 24 26 29 32 35 36 38 40 42
9 10 10 10 11 12 14 15 16 17 18 18 20 21 21 22 22 22 23 23 23 24 24 23 23 25 28 33 35 35 34 32 29 29 30 31 32 34 35 37 39 41
9 9 9 10 11 14 16 16 16 18 18 19 21 21 21 22 23 23 24 24 23 25 25 25 25 27 30 34 36 37 37 36 34 32 32 34 34 34 35 36 37 39
8 8 9 10 11 14 16 16 16 18 19 21 22 22 21 22 22 23 23 23 24 26 26 27 27 28 30 34 36 37 37 38 38 35 33 36 37 37 36 36 36 37
8 9 10 11 12 14 16 16 18 19 21 23 24 23 22 22 23 23 23 23 23 25 25 27 28 28 29 32 35 37 38 39 41 40 37 37 39 40 39 38 37 37
8 9 10 12 12 14 16 18 19 21 22 24 24 23 22 23 23 23 23 22 23 24 25 27 28 28 30 32 34 36 37 38 41 43 40 38 39 41 41 40 39 38
8 9 11 12 13 15 17 19 21 22 23 23 22 21 22 23 23 23 23 23 23 25 27 28 29 29 31 33 34 35 36 37 40 42 41 40 40 41 41 42 41 40
8 10 11 12 14 15 18 20 22 23 24 23 22 22 23 24 23 23 23 24 25 25 27 29 29 29 31 34 35 35 37 39 40 40 40 41 41 41 41 42 43 42
8 10 12 13 14 16 19 21 23 24 24 22 21 23 24 23 23 23 24 25 25 25 27 29 31 30 31 35 37 37 38 41 42 42 42 41 41 41 41 42 43 44
8 10 12 13 14 16 18 20 22 23 23 22 21 22 23 22 22 24 25 25 26 27 28 30 32 32 32 35 37 37 37 39 41 42 43 43 41 40 40 41 42 43
8 10 12 13 14 16 17 19 20 21 22 22 21 21 22 22 22 24 26 27 26 26 27 29 32 33 35 36 37 36 36 38 40 42 43 43 42 41 40 40 41 40

ECMWFNIL_850_spd_006.txt.gz
Wind_Speed
17 17 16 16 15 15 15 13 12 13 13 13 14 14 15 16 17 19 20 21 22 22 23 23 23 24 24 24 24 24 24 25 26 26 26 26 26 27 28 28 28 28
17 17 17 17 16 15 16 15 14 14 15 15 16 17 17 18 19 21 22 23 24 24 23 23 23 24 24 24 24 25 27 27 27 28 28 28 27 27 27 28 29 29
17 18 18 18 16 16 16 16 15 15 16 17 18 19 20 20 22 23 24 24 24 23 22 22 22 21 21 23 23 24 27 28 27 27 27 28 28 27 27 26 28 29
17 18 18 18 17 17 18 17 17 17 18 18 19 21 22 22 24 24 24 24 23 22 22 21 20 19 20 21 21 23 25 26 27 27 28 29 29 29 28 26 26 28
17 17 18 19 18 18 19 18 18 19 19 20 21 21 23 24 25 25 24 24 24 23 22 20 19 20 21 21 21 22 23 25 27 27 28 29 29 29 29 28 26 25
17 18 18 19 19 19 20 19 20 20 21 21 22 23 23 24 24 24 24 25 26 24 21 20 19 19 20 21 21 21 22 23 24 26 27 28 28 28 28 27 27 25
17 18 19 19 20 20 20 20 20 21 21 22 22 22 22 22 23 24 25 26 26 24 22 20 19 19 19 20 21 21 21 22 23 24 26 27 28 28 28 27 26 26
18 18 19 20 21 21 20 20 21 21 21 21 21 21 20 19 21 23 24 25 24 23 22 21 20 20 20 20 21 22 21 22 23 24 25 26 27 28 29 29 28 28
19 19 20 21 21 21 21 20 20 19 19 20 20 19 18 19 21 23 24 24 23 22 21 22 22 22 21 21 20 20 22 23 24 24 25 25 26 28 30 31 32 32
20 20 21 21 21 21 20 18 18 18 18 18 19 19 18 19 21 22 22 23 23 23 22 22 23 22 21 21 21 21 22 23 24 25 25 26 27 28 28 30 32 34
19 20 20 20 20 19 18 16 16 16 16 17 18 18 19 20 20 21 22 22 22 22 22 22 22 22 22 22 22 22 23 24 25 26 26 26 28 29 29 29 29 31
19 19 19 19 18 17 15 15 15 15 16 17 17 18 19 20 20 21 21 22 22 22 23 23 22 23 23 23 23 24 25 25 26 27 27 28 30 30 30 31 30 30
18 18 17 16 15 14 13 13 14 14 14 15 16 18 20 21 21 21 21 22 23 23 24 24 24 25 25 25 26 26 26 26 26 27 28 29 30 31 31 32 32 32
17 16 15 15 14 13 13 13 13 13 13 16 19 21 21 20 20 21 21 21 22 23 23 24 25 26 26 25 25 26 26 26 27 27 28 28 29 30 31 32 34 35
16 15 15 15 15 14 13 12 12 13 16 20 22 21 19 18 18 20 20 21 23 23 24 25 26 28 28 28 27 26 25 26 26 27 28 28 29 30 31 31 33 36
16 16 16 15 14 12 11 12 13 16 20 20 19 18 18 18 18 20 21 23 24 24 25 26 28 29 30 31 30 29 29 30 31 31 31 30 30 31 32 33 34 35
16 15 14 13 11 10 12 13 14 17 19 19 19 18 18 18 20 22 23 23 24 26 26 27 28 29 30 30 31 31 32 34 36 38 38 37 36 35 35 36 36 36
15 14 13 11 11 12 13 13 15 18 21 21 19 18 18 20 23 23 23 23 25 26 27 27 29 29 29 30 30 32 33 35 37 39 41 42 42 41 40 38 37 38
14 13 12 12 12 13 13 14 18 21 22 20 18 17 19 23 26 25 25 26 27 28 28 29 29 28 28 29 30 32 33 36 38 40 42 44 44 45 45 42 39 40
13 12 11 12 12 12 13 16 20 21 20 18 17 19 22 25 27 27 26 26 28 29 30 30 30 29 29 29 30 31 32 34 38 40 43 46 46 46 47 45 43 42
12 11 11 11 11 13 15 18 19 19 18 17 17 21 25 27 28 27 26 26 28 29 30 32 32 32 32 32 32 32 33 34 37 39 42 45 47 47 48 48 46 45
10 10 10 11 12 14 16 17 17 16 16 16 19 23 26 26 26 26 26 28 28 28 30 31 32 32 32 32 32 33 35 36 39 40 42 45 47 47 48 49 49 48
9 9 9 11 12 14 14 15 15 16 17 18 21 23 25 26 26 26 26 27 28 28 29 31 32 33 33 33 33 33 35 37 40 42 45 46 47 48 48 48 48 47
9 9 10 11 12 13 13 14 16 18 19 19 20 22 24 25 27 27 26 26 26 27 29 31 33 33 32 32 32 32 33 36 39 42 45 47 49 49 48 48 48 46
10 10 10 10 11 12 13 15 17 18 17 17 19 22 24 25 26 25 25 26 27 28 29 31 32 32 30 30 30 31 33 37 40 42 45 46 47 48 48 47 47 47
9 8 8 9 10 12 14 15 15 15 16 17 20 24 25 25 24 24 25 27 28 29 29 30 30 31 30 30 31 33 34 36 38 41 44 44 45 46 47 47 47 47

ECMWFNIL_850_spd_009.txt.gz
Wind_Speed
14 14 14 14 14 15 14 13 12 11 10 8 8 9 9 10 11 13 14 16 17 18 19 18 18 17 17 18 19 20 21 21 21 22 23 24 26 28 29 29 29 28
13 13 13 14 15 16 15 14 14 13 12 11 10 11 11 12 13 15 16 18 19 20 19 19 19 19 20 19 18 17 18 19 20 21 23 26 28 30 31 30 30 29
13 12 12 13 14 16 16 16 15 13 13 13 13 13 13 14 15 16 18 19 20 20 19 19 20 20 21 22 21 19 18 18 18 19 22 25 28 30 32 33 32 31
12 12 12 12 13 15 16 16 15 14 13 14 14 15 15 16 17 18 19 19 19 19 19 20 20 20 21 22 22 22 22 21 19 20 21 24 27 30 32 32 33 33
12 11 11 12 12 14 16 16 15 14 14 15 15 16 17 17 18 19 19 19 19 19 20 21 21 20 20 21 22 23 23 22 21 21 21 22 24 27 30 30 30 31
13 12 12 12 13 14 15 15 15 15 15 16 16 17 17 18 18 18 19 19 19 20 21 22 23 21 20 21 22 23 24 24 24 24 23 23 22 23 26 28 29 28
14 13 12 12 13 14 15 15 15 16 16 16 17 18 18 18 18 18 18 19 19 21 23 23 23 23 22 22 22 24 25 25 26 26 25 25 24 23 23 25 28 28
15 14 13 13 14 15 16 16 16 16 16 17 17 17 18 17 18 18 18 19 20 22 24 24 23 23 22 22 23 25 27 27 27 26 25 25 25 25 23 23 24 27
17 16 15 15 15 16 16 16 16 16 16 17 17 17 17 17 18 18 18 19 22 24 24 24 24 24 23 23 24 26 28 28 27 26 25 26 26 26 25 24 24 24
19 17 17 17 16 16 17 16 16 16 16 17 16 16 16 17 18 18 19 20 22 23 25 25 25 25 25 25 25 26 27 27 26 25 25 26 26 27 26 25 25 25
21 19 19 18 18 17 17 17 17 16 16 16 15 15 16 17 18 19 20 21 22 23 25 25 25 25 25 25 25 25 26 26 26 25 26 27 27 28 28 27 27 27
22 21 20 19 19 18 18 17 16 16 15 15 14 15 16 17 18 20 21 23 24 25 25 25 25 25 26 26 27 26 26 26 26 27 27 28 29 29 30 29 29 29
24 22 20 19 18 18 17 16 15 15 14 13 14 15 16 17 19 20 22 23 25 25 26 26 26 26 26 27 27 27 27 27 28 28 29 29 30 30 30 31 31 30
24 22 20 19 18 17 16 16 15 14 13 13 14 15 16 17 19 20 22 23 24 25 26 26 26 26 26 26 26 27 27 28 28 29 30 30 30 30 30 30 30 30
24 22 19 18 17 17 17 15 14 13 13 13 14 15 16 18 19 20 21 22 24 25 26 27 27 28 28 27 27 27 27 28 29 30 31 32 33 33 33 32 32 32
23 21 19 18 18 18 17 15 14 13 12 13 14 15 17 19 19 20 22 23 24 25 27 28 29 29 29 28 27 27 28 29 30 31 32 33 34 35 36 36 37 37
22 21 19 19 19 18 17 15 13 12 12 13 15 16 18 19 20 20 21 22 24 26 28 30 31 31 31 30 28 27 28 30 32 34 35 36 36 37 38 39 39 39
22 21 20 19 19 18 15 13 11 12 13 15 16 17 19 19 19 20 21 23 26 28 29 31 32 33 32 30 29 28 28 29 31 32 34 35 37 39 40 41 41 41
22 21 20 19 18 15 12 11 12 13 15 16 18 19 19 18 18 20 22 25 27 29 30 32 33 33 30 28 28 28 28 29 30 31 33 34 36 38 39 41 41 42
21 20 19 17 14 12 11 12 14 15 16 17 19 19 17 17 19 21 24 26 28 30 32 33 32 31 30 29 29 29 29 29 31 33 35 36 37 38 39 40 41 41
19 18 16 14 12 12 13 14 14 15 17 18 18 16 16 17 20 23 26 28 29 30 31 33 32 31 30 29 29 30 30 32 33 35 38 39 40 40 41 41 42 42
18 18 16 13 12 12 13 14 15 15 17 17 16 15 17 20 23 26 28 30 30 31 32 33 32 31 30 30 30 31 33 34 36 38 39 40 40 40 40 41 42 42
19 17 14 11 11 12 13 14 14 15 15 15 16 18 21 24 26 27 28 29 31 33 33 32 31 30 30 30 31 32 33 34 36 37 37 37 38 39 40 42 43 43
18 15 11 9 10 11 12 13 13 14 15 17 20 22 24 24 25 26 27 28 29 30 30 30 30 30 30 31 31 30 31 32 33 35 36 37 39 40 41 42 43 43
15 11 9 10 11 12 13 13 15 16 18 20 22 22 22 22 24 26 27 27 29 31 32 31 32 31 31 32 32 32 31 31 33 35 37 39 40 41 42 42 42 42
13 10 9 10 10 11 12 13 14 15 17 18 19 19 20 22 24 26 26 27 30 34 35 35 35 34 33 32 32 33 33 33 34 36 38 39 40 42 43 43 42 42

ECMWFNIL_850_spd_012.txt.gz
Wind_Speed
16 15 14 14 13 13 13 13 12 12 11 10 9 8 7 7 7 7 9 10 11 12 13 13 13 12 12 12 12 12 12 13 15 16 17 18 21 24 25 26 26 26
16 15 15 14 15 15 15 15 14 14 13 11 11 10 9 8 8 8 9 11 12 13 14 14 13 14 14 14 15 15 14 13 13 14 16 17 19 21 24 27 27 27
17 16 15 14 15 15 16 16 16 15 14 14 13 12 10 10 10 10 11 12 13 14 14 14 14 14 15 16 17 18 18 18 16 14 15 16 18 19 21 24 27 29
18 16 15 14 14 15 16 16 17 17 16 15 14 12 12 12 12 12 12 14 14 14 14 14 14 14 16 16 17 18 19 19 19 18 17 17 17 19 19 20 23 26
18 17 15 14 13 14 15 15 16 16 16 15 14 14 14 13 13 13 14 15 15 14 14 13 14 15 16 17 18 18 19 19 19 20 20 20 19 19 20 21 22 23
19 18 16 15 14 14 14 14 14 15 15 15 15 15 15 14 14 14 15 15 14 14 13 13 15 16 17 18 18 19 19 19 20 21 22 23 22 21 21 22 23 23
21 20 18 16 15 14 14 13 14 14 14 15 15 16 15 15 15 15 15 15 14 13 13 14 16 17 18 19 20 20 20 20 21 22 24 25 25 24 23 23 24 24
23 22 20 18 16 16 15 14 14 14 14 15 16 16 16 15 15 15 15 14 13 12 13 14 17 18 19 20 21 21 21 21 22 24 25 26 26 27 25 24 24 24
25 25 23 20 18 17 16 15 14 14 15 15 16 16 16 16 15 15 14 14 13 13 14 16 18 19 20 21 22 23 23 24 24 24 25 26 27 27 25 23 23 24
27 27 25 23 20 18 17 16 15 15 15 15 16 16 16 15 15 14 13 13 13 14 16 17 19 20 22 23 23 24 25 25 25 26 26 27 27 25 23 22 22 23
29 29 28 25 22 20 18 17 16 16 16 15 16 16 15 15 14 13 12 13 14 16 18 19 21 22 23 24 24 25 26 26 27 26 27 27 26 24 23 22 23 24
31 31 30 27 23 21 19 17 16 16 16 15 15 15 14 13 12 11 12 14 15 17 19 21 22 23 23 24 24 25 26 27 27 27 27 27 26 24 24 24 24 24
33 32 31 28 24 22 20 18 16 16 16 15 14 14 13 11 10 11 12 14 16 19 21 22 22 22 23 23 24 25 26 27 28 28 29 29 27 24 24 24 24 24
34 33 32 28 24 23 21 18 17 15 15 14 13 12 11 10 10 11 13 15 17 19 21 21 21 22 23 24 26 27 29 29 30 30 30 30 29 27 25 25 25 25
36 34 32 28 25 23 21 18 16 15 14 13 11 10 10 10 10 12 14 17 19 20 21 21 22 23 25 27 29 31 32 33 33 32 31 30 30 30 30 30 29 29
37 34 31 28 25 23 20 17 16 15 13 11 10 10 10 10 11 14 17 19 20 21 21 22 23 25 27 29 31 33 34 35 35 33 31 29 29 29 30 31 32 32
34 32 28 26 24 21 19 17 15 13 11 10 10 10 11 11 13 16 18 20 20 21 22 23 24 26 28 31 33 34 35 35 34 33 31 29 29 29 29 29 30 30
32 30 26 25 23 20 19 16 13 10 9 10 11 11 12 13 15 17 19 20 21 22 22 24 26 28 30 32 34 35 35 34 34 33 32 30 30 30 30 30 31 31
31 29 27 25 22 20 18 14 11 10 10 10 11 12 13 14 16 19 21 21 21 21 23 25 27 29 31 33 34 35 35 34 33 33 33 32 32 32 32 33 34 35
32 30 28 25 22 20 17 13 11 10 10 10 12 13 15 17 19 21 21 20 20 22 24 27 28 30 32 33 34 34 34 34 34 35 35 35 35 35 36 37 38 38
33 30 28 25 21 19 16 12 10 9 10 12 14 16 18 20 21 21 19 19 21 23 26 28 28 29 29 29 30 30 31 32 34 36 37 38 39 39 39 39 39 39
31 27 24 22 19 17 14 11 10 10 11 14 16 18 20 21 20 19 19 19 21 23 26 27 27 26 26 27 28 28 29 30 31 33 35 37 38 39 39 39 39 38
29 25 22 20 17 14 12 11 11 12 14 16 17 19 20 20 19 18 18 19 21 24 26 27 27 26 27 29 31 31 31 30 31 32 34 35 37 37 38 39 39 38
29 24 22 20 16 13 12 13 14 14 15 15 16 18 18 18 17 16 17 18 22 26 27 27 29 31 32 34 36 35 34 33 33 34 36 37 37 38 38 39 39 39
29 26 23 19 15 14 15 14 14 13 14 15 16 16 16 14 14 16 17 19 23 27 28 29 31 33 34 38 40 38 35 34 34 36 37 38 39 40 40 40 40 41
29 27 23 18 15 14 14 13 12 12 13 13 12 12 11 13 15 17 19 22 25 28 29 30 32 35 37 41 41 38 35 34 34 36 37 38 39 40 40 41 41 40

ECMWFNIL_850_spd_015.txt.gz
Wind_Speed
21 19 16 14 13 11 11 11 11 10 10 10 9 8 8 7 6 5 5 6 7 9 10 11 11 11 10 10 9 9 8 7 7 8 8 9 10 12 14 17 19 21
22 20 18 16 14 13 12 12 12 11 11 11 10 10 10 9 8 7 7 7 9 10 12 12 12 11 10 10 10 10 10 10 10 9 9 9 9 10 11 13 15 18
23 21 19 17 15 14 13 13 13 13 12 12 12 12 11 11 10 9 8 9 10 12 13 14 13 13 12 12 12 12 13 13 12 12 12 11 11 12 12 13 14 15
24 22 20 18 16 14 13 14 14 14 14 14 13 13 12 12 11 10 9 10 12 13 14 14 14 13 13 13 13 14 15 15 15 15 15 14 14 15 15 15 16 16
25 23 20 19 17 16 16 15 15 15 15 14 14 14 13 13 12 11 11 12 13 14 15 14 14 13 13 14 14 15 16 17 18 18 18 18 18 18 18 18 18 18
26 24 22 20 19 18 18 17 16 16 16 15 15 15 14 14 13 12 12 13 15 15 15 15 14 13 14 14 15 17 18 19 20 20 21 21 21 22 21 21 21 21
27 26 23 22 22 21 20 19 17 17 17 17 17 16 15 15 14 13 14 15 15 15 15 15 14 13 14 15 17 18 20 21 22 22 23 23 24 24 23 24 24 24
28 27 25 25 24 24 23 21 20 18 18 18 18 18 17 15 14 14 15 16 16 15 14 14 13 13 14 16 18 20 21 22 23 23 25 26 26 26 26 26 26 25
29 28 28 28 27 27 26 24 22 20 19 19 19 19 18 17 16 15 16 16 15 14 13 12 12 12 14 16 18 20 21 22 23 24 25 26 27 28 28 27 27 27
31 30 31 31 31 30 28 26 24 21 21 20 20 20 19 18 17 17 17 16 14 13 12 11 11 13 14 16 18 19 20 21 22 23 24 25 26 27 28 28 28 29
33 32 33 34 34 33 30 28 25 23 22 21 21 21 20 19 18 18 16 14 13 12 11 11 12 14 15 16 17 18 19 19 20 21 22 24 25 27 28 29 29 31
36 35 36 36 36 35 33 30 27 25 23 22 21 21 21 20 19 17 14 13 12 11 10 11 13 15 16 17 17 17 18 20 21 23 25 26 27 28 29 29 29 31
37 37 37 38 38 38 36 32 29 26 24 23 21 20 21 20 18 15 13 12 11 10 11 13 14 16 17 17 17 18 20 22 24 26 28 29 30 31 31 30 29 30
40 39 40 40 40 39 38 35 31 27 25 22 20 20 20 19 17 14 12 11 11 11 12 14 16 17 17 17 18 20 22 24 26 28 31 32 33 33 32 32 31 30
42 41 42 43 43 43 42 38 32 28 24 22 21 20 19 18 15 13 12 12 11 12 13 15 17 17 17 18 20 22 24 27 29 31 33 35 35 35 34 33 32 31
45 43 43 45 47 45 40 36 31 26 23 21 20 18 17 16 14 13 13 12 12 13 15 16 17 17 18 20 22 24 27 30 32 35 36 36 36 36 36 35 34 33
44 45 44 44 43 38 32 28 26 23 22 20 18 16 16 15 13 13 13 13 14 14 16 17 18 18 19 21 24 26 29 32 35 36 36 36 36 36 36 35 35 35
35 40 43 42 38 34 30 28 26 23 21 19 16 15 15 14 13 14 14 14 15 15 17 18 19 20 21 23 26 29 31 32 33 33 33 34 34 34 35 35 36 36
30 35 40 40 34 31 32 30 27 24 20 17 16 15 14 14 14 14 14 15 15 16 17 19 20 22 23 26 29 30 30 30 30 30 31 32 33 33 34 35 35 37
31 33 38 36 30 28 30 30 26 22 19 17 16 14 14 14 14 14 15 16 16 17 18 20 21 23 25 27 28 28 27 28 29 31 32 33 34 34 34 35 35 36
33 35 37 34 30 30 31 28 25 22 21 18 16 15 14 14 14 15 16 16 17 18 19 21 22 23 25 26 27 27 28 30 31 33 35 36 36 35 34 35 35 36
35 38 39 37 35 34 32 29 26 23 21 18 16 15 15 14 14 15 16 16 17 18 20 21 21 23 26 27 28 29 31 33 34 37 39 39 39 37 36 36 36 36
34 39 41 39 38 35 32 30 26 22 19 17 16 15 14 14 15 15 15 16 17 18 19 20 21 24 27 28 29 30 32 35 38 40 42 41 40 39 38 38 38 38
32 38 40 39 38 36 32 27 24 20 18 16 14 14 14 14 14 14 14 15 15 16 17 20 22 25 27 28 29 31 34 38 41 42 43 42 41 40 40 40 40 40
33 37 40 40 38 36 31 27 24 20 17 15 14 14 14 13 13 13 13 13 13 15 18 21 24 26 27 28 30 33 37 40 41 42 42 42 42 42 42 42 41 41
33 36 39 39 37 33 29 25 21 17 15 14 14 13 12 12 12 11 11 11 13 16 18 21 24 25 26 29 33 36 38 39 39 40 41 42 42 43 43 44 43 42

ECMWFNIL_850_spd_021.txt.gz
Wind_Speed
19 18 18 16 15 14 12 11 11 11 10 9 7 6 7 7 7 7 6 6 6 5 4 4 3 3 3 4 4 5 6 7 7 7 7 7 7 7 7 6 5 5
20 20 19 19 17 16 15 13 12 12 12 11 9 8 9 9 9 8 7 7 7 7 6 5 5 5 5 5 5 5 6 6 7 7 8 8 8 8 8 8 8 8
21 20 21 21 20 18 16 15 14 14 14 13 12 11 11 11 10 10 9 9 9 8 8 7 6 6 6 6 7 7 7 7 6 7 7 7 8 8 8 9 9 9
22 21 21 21 21 20 19 18 17 16 16 16 15 14 13 13 12 12 11 10 10 10 9 8 7 7 7 7 8 8 9 9 9 8 8 8 8 8 9 9 10 10
24 23 22 21 21 22 22 22 21 19 18 18 17 16 16 15 14 14 13 12 11 11 11 10 9 8 8 8 9 9 9 10 10 11 11 11 11 10 10 10 10 11
27 26 24 23 22 22 23 24 23 21 21 20 19 18 18 17 17 15 14 13 13 13 13 12 11 10 10 10 11 10 10 10 11 11 12 13 13 14 14 13 13 13
31 29 27 25 24 23 24 25 25 24 23 22 21 20 20 19 19 18 16 15 14 14 14 14 13 12 11 12 12 12 12 12 12 12 12 12 13 14 15 15 16 16
35 33 31 28 28 27 26 25 25 25 25 24 23 22 22 21 21 20 18 17 16 16 16 16 15 13 13 14 14 14 14 14 13 13 13 13 13 13 14 15 16 17
36 36 34 32 31 31 30 29 28 27 27 27 26 25 24 23 23 22 20 19 19 18 18 18 17 15 15 15 15 15 16 15 15 14 14 14 14 15 15 16 17 18
31 34 35 34 32 32 32 32 31 31 30 30 29 28 27 26 25 24 23 22 21 21 21 20 19 18 17 17 17 17 17 17 17 16 16 16 16 17 17 18 19 20
23 26 31 33 34 33 33 32 33 33 33 33 33 32 31 29 27 26 25 25 24 24 24 23 21 20 20 20 19 19 19 18 18 17 17 17 17 18 19 20 21 22
18 21 24 28 32 34 34 33 33 33 34 34 35 36 36 33 30 29 28 27 26 26 25 25 23 23 22 21 21 20 20 19 18 18 18 18 18 19 20 21 22 23
14 17 19 22 25 27 28 29 30 31 32 34 36 37 37 34 32 31 29 28 27 26 26 26 25 25 24 23 22 21 20 19 19 18 18 18 19 20 22 23 24 25
8 11 14 17 19 21 22 23 25 28 31 34 36 35 34 34 32 31 29 28 27 26 26 26 26 26 25 23 22 22 21 20 19 18 19 19 20 22 23 24 25 25
7 8 9 11 14 16 17 19 23 26 28 30 31 31 32 32 30 28 29 29 29 28 28 28 28 28 26 24 23 22 21 20 19 18 19 20 21 23 24 25 26 26
12 12 11 11 12 13 13 15 19 22 22 23 24 26 29 31 29 29 32 33 32 32 32 32 31 29 26 24 23 22 20 19 18 18 19 20 22 23 25 26 27 27
16 16 16 16 16 16 15 14 15 16 16 17 19 22 24 27 29 31 35 37 36 33 33 33 31 28 25 24 22 21 19 18 18 18 20 21 23 24 26 27 28 29
19 19 20 20 20 19 19 18 18 16 14 15 17 19 20 24 28 32 35 37 36 33 32 31 28 26 24 22 21 20 19 18 18 19 21 22 24 25 27 28 29 30
21 21 22 22 22 22 22 21 21 20 17 15 16 16 17 22 28 33 35 36 35 33 31 29 26 24 22 20 20 19 19 19 19 21 22 23 25 26 28 29 30 31
23 23 23 22 22 22 23 23 22 22 20 16 14 16 18 22 28 34 36 35 34 32 30 27 24 22 20 19 19 19 19 19 20 22 23 24 26 27 29 29 30 31
25 24 24 23 23 22 23 23 23 23 21 18 15 16 19 22 28 34 35 34 33 31 27 24 23 21 20 18 17 18 19 20 21 23 24 26 28 28 29 30 30 31
24 24 24 24 23 23 23 24 24 24 22 19 16 16 19 24 29 34 35 34 32 29 25 23 22 20 17 16 17 18 19 20 22 24 25 27 28 29 29 30 30 30
23 23 24 23 23 24 24 24 25 25 23 19 17 18 21 25 31 35 35 33 30 27 24 22 19 17 15 16 17 18 19 21 23 25 26 27 28 29 30 30 30 30
23 23 23 23 23 23 24 24 25 25 23 18 17 19 23 28 35 37 34 29 25 23 21 18 15 14 14 15 16 18 19 21 23 24 25 27 29 30 31 31 31 31
23 22 22 22 22 23 24 24 25 25 22 19 19 22 26 32 37 35 29 24 20 18 16 13 12 12 12 13 15 17 19 20 22 23 25 27 30 31 32 33 33 33
23 22 21 21 22 24 24 24 25 24 21 19 20 23 29 34 35 31 26 22 19 15 12 10 10 10 11 13 15 16 18 20 22 24 26 29 31 33 34 35 33 32

ECMWFNIL_850_spd_024.txt.gz
Wind_Speed
21 20 19 17 15 13 12 11 10 10 10 9 9 8 8 8 7 6 6 5 5 5 5 5 4 3 2 1 2 2 3 4 5 5 5 6 6 5 5 5 5 4
22 21 20 19 17 15 14 12 11 11 11 10 10 9 10 10 9 8 7 7 7 7 7 6 6 5 3 2 1 1 2 3 4 5 6 7 7 7 6 5 5 4
21 22 21 20 19 18 16 14 13 12 12 12 11 11 12 11 10 10 9 9 9 9 9 8 8 7 5 4 3 3 3 3 4 5 6 7 7 8 8 7 7 6
23 22 21 21 21 20 18 17 16 15 14 14 13 13 14 13 12 11 11 11 11 11 11 10 9 8 8 7 5 5 5 5 4 4 5 6 6 7 7 7 7 7
26 24 23 22 21 21 21 20 19 18 17 17 15 15 16 16 15 14 13 12 13 13 12 12 12 11 10 8 7 7 7 7 7 6 6 6 7 7 7 7 7 8
28 27 25 24 23 22 21 21 21 20 20 19 18 17 17 18 17 17 16 15 14 15 15 14 14 13 12 10 10 9 9 9 10 8 7 8 8 9 9 8 8 10
31 30 28 27 26 25 23 22 21 21 21 21 20 20 19 19 19 18 18 17 16 16 16 16 16 15 14 13 12 12 11 11 11 10 8 8 9 9 9 9 9 9
32 32 32 31 30 28 26 25 24 23 22 22 21 21 20 20 20 20 19 19 18 18 17 18 18 18 17 16 15 15 14 13 12 11 10 10 10 9 9 11 11 9
26 28 31 32 32 32 30 29 28 27 25 24 23 23 22 21 21 21 21 20 20 19 20 20 20 20 19 18 17 17 16 16 14 13 13 13 12 11 10 11 13 12
19 21 24 26 27 28 29 30 30 30 30 29 27 26 26 25 24 23 22 22 22 22 22 22 22 22 21 20 19 19 18 17 16 15 14 14 13 13 13 13 14 14
16 18 18 20 23 25 27 29 29 30 31 31 29 28 28 28 27 25 23 22 23 24 24 25 25 24 23 22 21 20 19 18 17 16 16 16 15 15 15 15 15 16
13 15 15 17 21 23 25 25 24 24 26 26 26 25 26 28 29 27 26 25 24 25 26 26 27 27 26 24 24 23 21 20 20 18 18 17 17 16 16 17 17 17
10 12 13 16 18 18 18 18 17 18 19 20 20 19 21 26 28 27 27 28 28 27 27 27 27 27 25 24 25 25 25 24 23 22 21 20 19 18 18 18 19 19
6 7 9 11 13 12 14 14 14 15 16 17 17 16 18 22 24 24 25 28 30 30 29 29 28 27 25 25 26 27 27 26 25 24 23 22 22 21 20 20 20 20
7 8 8 9 9 8 9 11 11 12 13 15 16 17 18 20 20 22 24 26 28 30 31 33 33 33 31 31 30 30 28 27 26 25 24 23 22 22 21 21 21 22
11 11 11 11 11 11 10 10 11 12 12 12 13 15 16 17 17 17 19 22 25 28 32 35 36 36 35 33 31 30 28 28 27 26 25 24 23 22 22 22 22 22
13 13 14 14 14 15 14 14 15 15 14 14 14 14 15 16 17 16 17 19 22 26 32 36 37 37 36 34 33 31 29 28 27 26 25 24 23 22 21 21 22 23
14 14 14 15 15 16 16 16 17 18 18 17 17 17 15 16 18 18 17 17 19 24 29 34 37 37 35 33 32 31 30 28 26 25 24 23 21 21 20 20 22 23
16 15 14 14 15 16 17 17 18 19 19 19 19 20 18 16 16 18 18 17 19 24 28 32 35 35 34 32 31 30 28 26 25 24 22 20 20 20 21 22 23 25
17 16 16 16 17 17 18 19 19 19 19 19 19 20 21 20 18 19 18 17 20 25 29 32 34 34 34 32 30 28 26 24 24 23 20 19 20 21 22 24 25 26
18 17 17 18 19 19 20 20 20 20 20 20 19 19 19 18 16 18 19 19 21 26 31 34 35 35 34 32 29 27 25 23 22 21 19 20 22 23 24 25 26 26
21 20 19 18 18 18 19 20 20 21 20 20 21 19 17 15 14 16 18 21 22 26 32 36 36 34 33 30 28 26 22 20 19 19 19 20 22 24 26 26 26 27
24 23 20 18 17 17 18 19 20 21 21 20 21 19 16 16 15 15 18 22 25 29 34 37 36 34 32 29 26 23 18 15 15 15 16 19 22 23 25 26 27 28
24 23 21 19 18 17 17 18 19 21 20 19 19 17 16 16 16 16 19 23 25 30 36 38 36 33 30 25 22 19 17 14 13 12 13 17 19 20 22 23 26 28
24 23 21 20 19 19 18 18 19 20 19 17 16 16 17 18 17 18 21 23 26 31 35 36 33 29 25 21 19 18 16 15 15 15 16 17 18 18 19 21 24 27
23 22 21 21 20 19 18 18 18 19 18 17 16 16 17 18 19 19 21 24 27 31 33 30 27 24 21 18 17 16 16 16 16 17 18 19 19 19 20 22 23 22

ECMWFNIL_850_spd_027.txt.gz
Wind_Speed
17 16 15 15 14 12 12 12 11 10 10 8 8 7 7 7 6 4 4 4 4 4 5 5 4 5 4 5 3 1 3 4 5 6 7 7 7 8 8 7 6 5
18 16 15 15 14 13 13 13 12 11 11 10 9 8 8 9 8 6 5 6 6 6 7 6 6 5 4 5 4 2 4 5 5 6 7 7 8 8 8 7 6 5
20 18 16 15 14 14 14 14 13 13 12 11 11 10 10 12 10 8 7 8 7 8 8 7 7 7 5 5 5 3 5 6 6 7 7 7 7 8 8 7 7 6
22 20 19 17 15 14 14 14 14 13 12 12 13 12 12 13 12 10 10 10 8 9 10 9 9 8 7 7 5 4 5 6 6 7 7 6 6 7 7 7 6 6
21 22 21 19 17 15 14 14 14 14 13 13 13 13 13 15 14 12 12 12 10 11 11 10 11 9 9 9 6 5 6 6 6 6 5 6 6 5 6 6 6 6
18 19 20 20 18 16 15 15 15 14 14 14 14 14 15 16 16 13 14 14 12 12 12 12 12 11 11 11 8 8 7 5 7 7 4 5 7 6 6 6 6 6
15 16 18 19 18 17 16 16 15 15 15 14 15 15 15 16 17 16 15 15 14 14 14 14 15 14 13 12 10 10 8 7 9 9 5 5 7 8 8 7 5 4
18 17 17 18 18 18 18 17 17 15 15 15 15 16 16 17 17 17 17 17 16 16 16 16 16 15 15 14 12 12 11 11 12 11 6 7 9 9 8 9 9 5
22 23 22 22 21 21 20 20 19 17 15 15 15 16 17 18 18 18 18 19 18 18 18 17 17 17 17 17 15 14 14 15 15 13 10 10 12 10 7 9 11 9
19 21 23 25 25 24 23 23 23 22 20 18 18 19 19 19 19 19 19 20 20 19 19 19 18 18 18 18 17 16 16 17 17 16 14 14 14 11 9 10 12 11
13 15 17 20 23 24 23 22 23 24 23 22 23 23 23 22 21 21 21 21 21 21 20 20 19 18 19 20 19 18 18 18 19 18 18 17 15 14 13 13 14 13
11 13 14 14 16 18 20 22 25 28 27 26 25 24 23 23 22 23 23 23 23 22 21 20 20 19 20 21 20 20 21 21 20 20 19 18 17 16 16 16 16 15
7 9 10 10 12 14 17 19 22 26 27 27 25 24 23 22 22 23 23 24 24 23 23 23 22 22 23 23 22 22 23 22 20 20 19 17 17 16 16 17 17 16
4 5 6 7 9 12 13 15 17 19 21 21 22 23 21 20 21 20 21 22 23 24 25 25 24 25 24 23 23 23 24 23 21 21 19 17 17 17 17 18 18 17
5 6 7 7 7 8 10 12 13 14 16 18 20 21 20 19 20 20 20 21 22 23 24 24 26 27 24 23 23 25 26 25 23 22 20 17 18 18 17 18 19 18
6 8 8 8 8 9 9 10 11 11 13 14 14 17 18 17 18 20 21 22 21 21 23 26 28 26 24 26 28 27 26 26 24 23 20 17 17 17 16 18 18 18
7 8 8 9 9 10 11 11 11 11 12 12 12 13 15 15 15 17 18 20 21 22 25 29 29 25 25 30 33 32 30 27 26 25 22 20 20 19 18 18 17 17
7 8 9 9 10 10 11 11 12 12 13 13 14 15 15 15 16 17 17 17 19 22 26 30 31 28 28 32 35 36 34 29 28 28 26 25 24 23 21 19 18 18
8 9 9 10 10 10 11 11 12 13 14 14 15 16 16 17 18 19 19 17 18 22 25 27 28 28 29 32 35 37 36 32 30 28 27 26 24 23 22 22 21 21
9 9 10 10 10 11 11 12 13 13 14 15 15 16 17 18 20 20 20 19 18 21 22 22 25 28 31 32 32 34 36 33 30 28 27 25 24 24 24 24 24 23
10 10 11 11 11 12 12 13 13 14 14 15 15 16 17 18 19 21 22 21 21 22 20 21 26 30 32 31 29 31 36 34 30 30 29 25 24 25 25 25 24 24
10 11 12 12 12 13 13 14 14 14 15 15 15 16 17 17 18 19 20 20 21 21 20 24 29 30 32 32 29 29 32 32 31 31 28 25 24 23 23 23 23 23
11 12 12 12 13 13 14 14 14 15 15 15 15 16 16 17 18 18 18 19 20 20 22 27 30 31 32 31 28 28 29 29 29 27 23 19 19 19 19 19 19 21
13 13 13 14 14 14 14 14 14 15 15 15 15 16 16 17 18 18 18 19 20 21 24 29 30 30 30 28 27 28 28 27 24 19 15 13 12 14 15 14 15 18
15 15 15 15 15 15 15 15 15 15 15 15 15 16 16 16 16 17 17 19 20 22 24 27 28 28 28 26 27 28 27 26 23 18 15 14 13 12 12 11 13 17
17 17 16 16 16 16 15 16 15 15 15 15 15 16 15 15 16 17 19 21 22 23 24 25 27 28 28 28 28 28 26 25 22 18 16 15 14 13 13 14 15 16

ECMWFNIL_850_spd_030.txt.gz
Wind_Speed
20 19 17 16 14 11 10 10 9 8 7 7 7 7 5 4 1 1 2 2 2 2 3 3 4 4 4 5 5 3 5 6 6 7 7 6 7 7 7 6 5 5
20 18 16 15 15 12 11 10 10 10 9 9 8 8 8 8 4 2 2 3 3 3 3 2 3 2 2 3 3 2 4 5 5 6 6 6 7 7 7 7 6 5
20 18 15 14 14 13 11 10 11 11 10 9 10 9 10 11 9 5 4 4 5 5 4 3 2 2 2 2 1 1 3 3 4 5 5 6 6 6 7 6 6 6
20 18 16 14 13 13 11 10 11 11 11 10 10 11 11 13 13 10 8 6 6 7 6 5 4 3 2 2 1 1 2 3 3 4 4 5 5 6 6 6 6 6
19 18 17 15 13 13 12 12 12 12 11 11 11 12 12 14 16 14 11 10 9 9 9 8 6 5 4 3 2 2 2 2 2 2 3 4 4 4 4 4 5 4
17 17 16 15 15 15 14 13 14 14 13 11 11 13 13 15 17 17 15 14 12 11 11 11 10 8 7 6 5 4 3 3 2 1 3 4 3 2 2 3 3 3
15 15 16 16 17 17 15 16 17 16 15 14 14 14 15 15 18 18 17 15 15 14 13 14 13 11 11 9 8 7 6 5 5 4 3 4 5 3 3 3 2 2
15 15 16 17 17 17 18 18 18 18 18 17 16 16 16 16 18 19 18 16 16 16 14 14 15 14 13 12 11 10 9 8 9 8 6 6 7 7 6 6 4 2
15 16 18 19 18 18 18 19 18 19 20 19 18 18 18 19 19 19 19 18 18 18 16 15 15 15 15 15 13 13 12 12 12 11 9 8 10 10 9 9 7 4
17 19 21 21 20 20 19 19 19 20 21 21 21 21 21 20 21 22 22 21 20 20 18 17 17 17 17 17 16 14 14 14 14 14 12 11 12 12 9 10 11 9
13 17 18 19 20 21 21 20 20 19 20 20 21 22 21 21 23 25 24 22 22 22 20 20 19 19 19 19 18 16 15 16 16 17 15 13 13 14 10 11 14 12
9 11 12 12 14 16 18 20 20 19 20 22 22 23 23 24 26 26 24 22 23 23 22 22 22 22 21 20 19 18 16 16 17 18 18 15 15 15 12 14 16 14
6 6 7 8 10 12 14 16 17 17 19 22 24 24 25 27 28 28 24 22 22 22 22 25 25 23 22 21 20 20 19 18 18 19 19 17 16 15 15 17 17 16
0 2 3 4 6 7 9 10 11 12 14 18 22 23 24 25 26 28 26 23 24 25 26 28 27 25 22 21 22 23 22 21 20 20 19 19 18 17 17 18 17 16
1 1 3 3 3 3 5 6 6 7 8 12 16 18 19 19 21 24 25 24 25 26 26 27 27 25 24 24 25 25 24 23 21 20 20 20 20 19 18 18 17 16
1 2 3 3 3 4 5 6 7 8 9 10 11 12 14 15 16 20 22 23 24 24 24 25 24 24 26 28 29 30 28 24 22 22 21 20 20 20 19 18 18 17
2 3 3 3 4 5 6 7 7 9 10 11 13 13 14 14 14 15 17 18 20 21 22 24 24 24 25 28 31 33 29 24 23 24 23 21 20 20 19 19 18 17
3 4 4 5 5 5 6 7 7 8 9 11 12 14 15 16 15 15 16 16 16 17 18 20 23 24 25 26 28 30 27 25 25 26 25 22 21 20 19 19 18 18
4 5 5 5 6 6 7 8 8 8 9 10 12 13 14 16 17 16 17 18 18 19 18 19 22 23 23 23 25 27 27 27 27 27 26 24 22 22 21 20 20 20
5 6 6 6 6 7 8 9 9 9 10 11 12 13 13 14 16 16 18 19 21 22 21 20 23 23 20 19 22 26 29 28 27 28 28 25 24 24 24 23 22 22
6 6 7 7 8 8 9 10 10 11 11 12 12 13 13 14 15 16 18 19 21 23 22 21 22 22 20 18 20 24 27 27 27 28 28 27 27 28 27 26 25 23
7 8 8 9 10 10 10 11 11 11 12 12 13 14 14 14 15 16 18 19 21 22 23 23 23 22 22 22 21 23 25 26 27 29 28 28 29 29 27 25 23 22
8 9 10 11 11 11 12 12 12 12 13 13 14 14 14 14 15 16 17 18 20 22 23 24 23 23 24 23 23 24 25 26 27 27 26 27 28 26 24 22 20 20
10 10 11 12 12 13 13 14 14 14 14 14 15 15 15 15 15 16 16 18 20 22 23 24 23 22 23 22 22 23 24 24 23 22 22 23 22 19 17 16 15 15
11 12 12 13 14 15 15 16 16 16 16 15 15 15 15 15 15 16 18 20 22 23 24 25 24 22 22 21 21 22 22 20 19 20 20 20 18 15 14 13 12 12
14 14 14 14 15 15 15 16 16 16 16 15 15 15 14 14 16 19 20 21 22 22 23 24 24 22 21 20 19 19 20 20 21 22 22 22 21 20 18 17 15 16

ECMWFNIL_850_spd_033.txt.gz
Wind_Speed
18 14 13 13 12 11 9 9 7 6 4 4 5 5 6 6 7 7 7 8 8 7 6 6 6 5 5 7 8 8 8 7 6 7 6 5 5 5 5 5 5 5
19 15 14 13 13 11 9 8 7 6 4 3 2 2 2 3 4 5 5 6 6 6 6 5 5 4 4 5 6 6 6 6 6 6 6 6 6 6 5 5 6 5
21 17 15 15 13 11 9 8 7 6 5 4 2 2 2 2 2 2 3 5 5 5 5 4 4 4 3 3 4 5 5 5 6 6 6 7 6 6 6 6 6 6
21 18 16 15 14 11 8 9 9 8 7 7 5 5 5 5 5 4 4 4 5 4 4 3 3 3 3 3 3 3 4 5 5 5 6 6 6 6 6 6 6 6
18 16 13 13 14 12 9 9 10 10 10 8 7 7 7 7 7 7 6 6 6 6 6 5 4 3 3 2 3 3 3 3 3 4 4 4 5 6 5 5 5 6
15 14 10 10 12 13 11 10 10 11 11 10 9 8 7 7 8 9 9 9 9 9 9 7 6 6 5 4 3 4 3 2 1 1 1 2 3 3 3 3 3 3
16 15 13 12 13 14 13 12 12 12 12 11 10 8 7 7 9 10 11 11 11 12 11 10 9 8 8 7 6 6 6 5 4 4 3 2 1 1 1 1 1 1
19 18 18 17 16 15 15 14 15 15 14 13 12 10 9 9 9 10 11 11 12 12 12 12 12 10 10 10 9 8 8 8 8 7 7 7 6 4 3 3 3 3
21 20 21 21 19 18 17 17 17 17 17 16 14 12 11 11 10 8 9 10 10 11 11 13 14 14 13 12 11 10 9 10 10 10 9 10 10 9 8 7 6 6
22 22 21 20 19 18 19 21 21 20 19 18 16 14 13 13 13 13 13 14 14 14 14 14 14 15 15 14 14 13 13 12 12 13 12 11 12 12 12 12 10 9
20 21 20 19 19 19 21 23 23 21 21 20 19 18 16 16 17 17 17 17 18 18 17 15 16 17 16 16 17 18 18 16 16 15 14 13 13 13 14 15 14 12
17 18 17 16 16 17 20 23 22 21 21 20 20 20 18 17 18 19 20 21 23 22 19 18 19 18 17 18 19 20 21 21 20 18 16 15 15 15 15 16 16 15
12 11 10 10 10 12 16 18 19 19 19 18 19 19 19 18 18 19 20 21 22 22 20 20 20 17 17 21 22 20 20 23 22 22 20 18 17 17 16 16 17 16
6 5 4 5 5 6 7 8 9 10 10 12 15 17 18 19 19 19 18 19 20 21 21 22 21 20 21 24 24 21 21 23 23 24 24 22 19 18 17 17 17 18
5 4 3 4 3 3 3 2 2 3 3 6 8 10 11 12 14 15 16 18 21 23 24 24 23 24 24 24 25 24 25 25 24 24 25 24 21 19 19 19 18 20
4 3 2 2 1 1 1 1 1 2 3 4 5 5 6 7 8 10 12 15 18 20 22 22 22 23 23 23 24 25 27 27 25 23 24 25 23 22 21 21 21 22
3 3 3 2 2 1 1 2 3 4 4 4 5 6 6 7 9 10 10 11 12 13 16 17 18 19 20 21 22 23 24 27 28 27 24 23 24 24 24 24 24 23
3 4 4 4 4 4 4 4 4 5 5 5 6 6 6 6 8 10 11 11 11 12 12 14 14 14 15 17 19 20 22 25 28 30 28 25 24 26 26 25 25 24
4 3 3 3 4 5 6 6 7 7 7 8 9 9 9 8 8 8 10 12 14 14 14 14 13 13 13 14 15 17 20 22 24 28 29 26 24 26 28 27 26 24
2 2 3 4 5 5 6 6 6 7 8 9 10 10 11 11 11 10 10 11 13 15 16 16 16 15 15 15 15 15 17 19 21 23 24 22 23 26 27 26 25 23
3 2 3 4 5 6 6 6 6 6 6 7 8 9 10 11 12 13 13 13 14 14 16 17 17 17 17 16 16 16 17 17 19 21 21 20 22 24 25 24 23 22
4 3 4 5 6 7 8 8 8 8 7 8 9 10 11 12 12 13 14 14 15 15 16 17 18 18 19 18 17 18 18 17 18 21 22 21 21 23 24 24 23 22
6 6 6 6 7 7 8 8 8 9 9 10 11 11 12 13 13 14 15 15 16 16 17 18 19 20 20 19 19 19 20 20 20 21 22 23 23 24 23 22 20 20
9 9 9 9 9 9 10 11 11 12 12 13 13 13 13 14 14 15 17 18 18 18 18 19 20 20 21 20 20 20 20 20 21 22 23 23 23 22 21 19 19 20
11 12 13 13 13 13 14 14 15 16 16 15 15 15 15 16 17 18 19 19 19 19 20 20 20 19 20 20 20 20 20 20 21 22 22 22 21 20 20 20 21 21
14 14 14 13 13 14 14 14 15 15 16 16 15 15 15 16 18 19 19 19 19 18 18 19 19 18 18 18 18 19 18 18 20 22 22 21 20 19 19 19 20 20

ECMWFNIL_850_spd_036.txt.gz
Wind_Speed
16 14 13 14 15 14 12 12 12 12 12 13 13 13 13 13 12 11 10 9 9 8 7 7 8 7 6 6 6 6 6 5 5 5 5 4 4 4 3 2 1 1
17 15 13 13 15 15 13 12 11 12 13 13 13 13 13 13 12 12 10 10 10 9 8 7 7 8 7 6 6 6 5 5 5 5 4 4 4 4 4 3 2 2
18 16 15 14 14 14 14 12 11 10 10 11 11 11 11 11 11 11 11 10 9 8 7 6 6 7 6 6 6 5 5 5 5 4 4 5 5 5 5 4 3 3
20 18 16 16 15 13 13 13 11 10 9 8 8 7 7 8 8 9 9 9 8 7 6 5 5 5 5 4 5 5 4 5 5 4 4 4 5 5 5 5 4 3
22 19 16 15 16 14 13 13 12 11 9 8 7 7 6 5 5 6 7 7 7 6 5 4 3 3 2 2 3 3 3 3 4 4 4 4 3 4 5 5 4 4
23 20 17 16 16 16 14 13 13 12 11 10 9 8 8 6 5 4 4 4 5 5 5 5 3 2 1 0 1 1 1 1 2 2 2 2 2 2 3 3 3 3
23 21 20 18 17 17 17 14 14 14 13 13 11 10 10 8 7 5 4 3 3 3 3 3 3 2 1 1 2 3 4 3 3 3 2 2 2 1 1 0 1 1
23 22 22 20 18 19 20 18 17 16 15 15 14 12 12 10 9 7 6 6 5 4 3 3 2 2 2 1 1 2 3 4 5 5 5 5 4 3 3 3 3 2
22 23 23 21 20 21 21 20 20 19 16 16 15 14 13 12 12 11 9 9 8 7 7 6 5 5 5 4 3 3 3 4 5 6 7 7 7 6 5 5 5 5
25 25 24 23 22 22 21 20 20 19 18 18 18 17 15 14 14 13 13 12 11 11 11 10 9 9 8 6 6 6 7 7 7 8 8 9 9 9 8 7 7 7
26 25 24 24 24 23 21 20 18 19 21 22 20 19 18 17 16 16 15 14 13 13 14 14 12 12 12 10 8 9 10 11 11 11 11 11 11 11 11 10 9 8
22 22 21 21 20 19 19 19 19 20 23 23 22 20 20 20 19 18 17 16 15 15 16 17 16 17 17 14 11 11 13 14 15 14 15 15 15 14 14 13 12 10
20 20 20 19 17 16 18 19 21 23 25 24 22 20 20 20 19 19 19 19 18 18 18 20 20 20 18 16 15 15 15 13 13 14 16 17 18 17 16 16 15 13
18 18 17 17 17 18 19 19 20 22 23 21 20 19 20 20 19 19 19 19 20 20 20 21 20 19 18 17 17 17 16 14 13 15 18 19 20 19 19 18 18 16
13 12 12 13 13 13 12 11 11 12 12 12 13 14 14 14 14 15 15 16 17 18 19 20 20 20 19 18 18 19 20 21 21 21 22 22 21 20 21 21 20 19
9 8 8 8 8 7 7 6 6 5 5 5 5 6 6 6 7 7 7 8 9 11 13 15 17 19 19 19 19 20 21 22 23 22 23 24 23 22 22 23 24 23
8 7 6 7 7 6 7 7 6 6 6 5 5 5 5 6 5 5 4 5 5 6 7 9 12 13 15 17 18 19 20 21 22 22 23 24 24 24 23 24 26 25
8 7 7 6 6 6 6 6 5 6 6 6 6 6 6 6 6 6 6 5 5 6 6 7 8 9 10 12 14 16 17 18 19 20 20 21 23 25 24 24 26 27
8 9 8 8 7 7 7 7 7 6 6 7 7 8 8 8 8 8 8 8 7 7 7 8 8 9 10 11 11 12 12 13 15 16 18 19 21 23 23 23 25 27
6 7 8 8 8 8 8 8 8 8 8 8 8 8 8 8 8 9 9 10 10 10 10 10 10 10 10 12 12 12 13 13 14 15 17 18 18 18 18 19 23 27
4 5 6 7 8 8 8 8 8 8 8 7 7 7 7 7 8 8 9 9 11 13 14 14 13 12 12 12 13 14 14 15 16 16 16 16 16 15 15 16 21 26
4 4 5 6 7 7 7 8 9 9 8 7 7 7 8 9 9 10 10 9 10 12 13 15 15 15 14 14 15 15 16 16 17 17 16 16 15 14 13 15 19 25
5 5 5 5 6 6 7 8 8 8 9 10 11 11 12 12 12 12 12 12 12 12 12 13 14 15 15 15 15 16 17 17 17 17 17 16 15 14 14 17 22 25
6 7 7 7 8 8 8 9 9 10 11 12 14 15 15 15 15 15 15 14 14 14 14 15 15 16 16 16 15 16 17 18 17 16 15 15 15 16 18 21 24 24
9 10 11 11 12 12 12 13 13 14 15 15 16 17 17 17 17 16 16 15 16 16 16 16 16 17 17 16 15 15 16 17 17 16 15 15 16 18 20 22 23 23
13 13 13 14 14 14 14 14 14 15 16 15 15 15 17 17 17 17 16 16 16 16 17 17 18 18 18 17 15 14 14 15 15 15 14 15 16 18 20 21 22 23

ECMWFNIL_850_spd_042.txt.gz
Wind_Speed
10 10 7 5 6 7 5 4 4 5 5 5 6 6 6 6 5 4 3 3 2 2 2 3 3 4 4 4 5 5 5 5 5 6 6 7 7 7 7 7 7 7
12 11 9 6 7 10 8 6 6 6 6 6 5 6 5 5 5 4 4 3 3 2 2 2 3 3 3 4 5 6 6 6 6 6 6 6 6 7 7 7 7 7
13 12 9 7 9 12 11 9 8 7 8 7 6 5 4 4 4 4 4 3 3 2 2 2 2 2 3 3 4 5 6 7 7 7 7 7 7 7 7 8 7 7
15 12 9 8 11 13 13 11 9 8 9 8 7 6 5 4 3 3 3 2 2 2 1 1 1 1 2 2 3 4 5 6 7 7 7 7 8 8 7 7 8 7
16 13 11 12 14 13 13 12 11 10 9 9 8 7 5 4 3 2 2 1 0 0 0 1 1 1 2 2 2 2 2 3 4 5 5 6 6 7 7 7 7 7
18 16 14 15 15 14 11 11 10 10 9 9 8 7 6 4 3 2 1 1 1 2 2 2 3 3 3 3 2 2 2 1 2 2 2 3 4 4 4 5 5 5
20 18 16 16 17 15 11 9 9 9 9 9 10 9 7 5 4 3 3 3 4 4 5 5 5 5 5 5 4 4 4 3 3 2 2 1 1 1 2 2 2 3
22 19 18 18 18 16 13 10 10 9 9 11 12 12 10 9 8 8 7 7 7 6 6 6 7 7 7 7 6 5 5 4 4 3 3 3 3 2 2 1 1 0
23 20 20 20 18 16 14 13 13 12 11 12 13 13 13 13 13 11 10 10 9 8 8 7 8 9 9 7 6 6 6 6 5 4 3 3 3 4 4 4 3 2
23 21 22 21 19 17 17 17 16 15 13 13 14 14 15 16 16 14 13 14 13 13 13 12 11 11 11 10 9 9 9 8 8 8 7 6 5 5 5 5 5 5
22 21 22 21 19 18 19 19 18 17 16 16 17 16 16 16 16 15 15 16 16 16 16 16 15 15 16 16 14 12 10 9 10 12 12 11 10 9 8 8 7 6
19 19 20 20 18 18 19 20 19 17 16 17 19 20 19 19 19 18 17 18 18 18 17 18 19 19 19 19 18 16 14 12 10 11 13 14 14 14 13 12 11 10
14 14 15 16 18 19 19 19 19 18 16 16 18 20 20 20 21 21 21 21 21 19 19 21 22 21 20 18 17 17 16 14 12 12 13 14 14 15 14 12 11 11
13 12 12 14 16 16 17 18 18 17 17 17 17 19 20 20 20 21 22 22 21 20 20 21 23 22 19 17 16 16 16 15 14 14 15 15 15 15 14 13 12 14
14 13 13 14 13 12 13 16 16 16 19 20 20 21 22 21 20 19 20 21 20 19 19 20 21 20 17 15 15 16 16 16 15 16 16 16 15 16 16 17 17 17
13 13 14 14 14 13 13 14 15 15 16 16 14 12 13 13 13 13 13 13 13 13 14 14 13 11 11 11 13 14 15 15 16 17 17 17 17 18 18 18 18 17
11 11 12 13 12 11 10 10 10 10 8 6 5 4 4 4 5 5 4 4 5 6 6 6 5 5 6 7 8 9 11 12 14 15 15 16 17 17 17 17 17 16
8 8 9 9 9 8 8 8 8 7 6 5 4 3 3 3 2 3 3 3 4 5 5 6 6 7 7 8 8 9 9 10 10 10 10 11 12 13 13 14 14 14
8 8 8 8 8 8 8 8 7 6 5 4 4 3 2 2 2 2 3 5 6 6 7 8 8 9 10 10 10 10 11 10 10 9 9 9 9 10 11 12 12 13
7 7 7 6 6 6 6 5 5 4 4 3 3 3 3 4 4 5 5 6 7 7 8 9 11 11 12 13 13 13 13 13 12 11 11 10 10 10 11 11 12 13
7 7 7 7 7 7 6 6 5 5 5 5 6 5 5 5 5 5 5 5 6 6 8 9 10 11 12 13 13 14 14 14 14 14 14 14 13 12 12 12 12 12
6 6 7 8 8 8 8 7 7 7 7 7 7 7 6 6 5 5 4 4 5 6 7 9 10 11 12 12 13 13 14 14 15 15 16 16 15 14 13 13 12 13
4 5 6 8 9 9 9 9 8 8 7 7 7 7 6 5 5 5 6 7 8 8 9 10 11 12 13 13 14 14 14 14 13 14 15 15 15 15 14 13 13 13
6 6 7 8 9 9 10 9 9 8 7 7 6 6 6 6 7 8 9 10 10 10 12 12 13 13 13 14 14 15 15 15 14 13 13 13 14 14 14 13 12 12
10 11 10 9 9 10 10 10 9 9 8 8 8 8 8 8 9 9 10 11 11 12 14 14 15 15 15 14 14 15 15 15 15 14 13 12 13 13 12 12 11 11
13 13 13 12 12 12 12 12 12 11 11 11 11 11 10 10 10 10 11 12 13 15 15 16 17 17 16 16 16 16 16 16 15 14 13 12 12 11 11 10 11 11

ECMWFNIL_850_spd_045.txt.gz
Wind_Speed
10 9 8 7 7 6 5 7 8 8 8 8 8 8 7 7 7 7 7 7 7 7 7 8 9 9 9 9 10 10 10 9 8 9 8 7 7 7 7 7 7 7
11 10 10 8 8 7 7 7 8 8 8 8 8 9 8 7 7 7 7 7 7 7 7 8 9 9 10 9 10 10 10 9 9 9 9 8 8 8 8 8 8 8
13 12 11 9 8 9 8 8 9 10 9 8 9 8 7 7 7 7 7 6 6 6 6 7 7 8 9 9 9 9 10 10 9 9 9 8 8 8 8 8 8 8
14 13 11 9 10 11 10 10 10 10 9 8 8 8 7 6 6 5 5 5 6 6 6 6 6 7 7 8 8 8 8 9 9 9 9 9 8 8 8 8 8 8
15 13 11 11 12 12 12 11 10 9 9 8 8 8 7 6 6 5 5 5 5 5 5 6 5 5 5 6 6 7 7 8 8 8 8 9 9 8 8 8 7 7
15 14 12 12 13 14 13 12 11 10 10 9 9 8 8 7 7 6 6 5 4 4 4 4 4 4 4 4 4 4 5 6 7 7 7 7 7 7 7 7 7 7
16 15 14 13 14 15 13 12 13 13 12 11 10 10 9 8 7 6 6 4 3 2 1 2 3 4 5 5 4 3 3 3 3 4 5 5 5 5 5 5 5 5
17 17 16 14 14 16 15 13 14 15 14 13 12 12 10 9 8 7 6 4 3 2 1 1 2 3 4 4 4 3 3 2 1 1 1 2 2 2 3 4 4 4
17 19 18 15 14 16 16 14 14 15 15 15 14 13 12 11 11 9 8 7 5 4 4 3 1 2 3 4 5 4 4 3 3 2 1 1 1 1 1 1 2 3
17 18 19 17 15 16 16 15 15 15 14 14 14 14 13 13 12 11 9 9 8 7 7 6 5 5 5 6 7 8 8 7 6 5 4 4 4 4 4 3 3 4
17 17 18 17 15 16 17 16 16 16 15 14 14 14 15 14 13 12 12 11 11 11 10 10 10 10 10 9 10 11 12 13 13 11 8 8 8 7 7 6 7 7
16 16 18 18 17 16 16 17 18 18 17 15 13 13 14 15 14 14 14 14 14 15 14 14 15 15 14 14 15 15 15 16 17 15 13 12 11 10 9 9 9 10
13 13 14 16 17 16 16 17 17 17 18 16 14 12 13 15 15 16 16 16 16 16 16 18 19 18 17 17 17 16 16 17 16 16 16 15 14 14 13 11 10 11
10 9 9 10 14 16 16 16 16 17 18 17 14 12 13 14 15 15 16 17 17 17 18 19 19 18 17 17 17 17 17 17 16 16 16 17 16 16 15 13 12 12
8 8 7 7 10 13 14 15 15 16 17 16 14 13 14 15 16 17 18 18 17 16 16 16 16 16 16 16 16 16 16 16 16 16 17 17 17 16 16 16 15 14
7 6 5 5 6 8 9 11 13 14 14 14 14 14 15 15 16 16 17 17 16 14 13 13 13 12 12 11 11 11 11 11 12 12 13 14 14 14 15 16 15 14
8 8 7 6 7 8 9 10 11 12 13 13 12 11 9 7 6 6 7 8 8 7 7 6 6 5 5 6 6 6 6 7 8 8 9 9 10 10 11 13 12 10
7 8 7 7 8 9 9 10 10 11 11 10 9 7 6 5 5 5 6 5 5 5 5 5 4 4 4 5 5 6 6 7 7 8 8 8 9 9 9 10 10 9
5 5 6 6 7 7 8 8 8 8 8 8 8 7 7 7 6 6 6 6 5 5 4 4 4 5 5 6 7 8 8 9 9 9 9 9 9 10 10 10 10 9
5 5 5 6 8 8 8 8 8 8 8 8 8 8 8 7 7 6 5 5 5 5 5 5 5 6 7 8 9 10 10 11 11 10 11 11 11 11 11 11 10 9
5 5 5 6 7 8 9 8 8 8 8 9 8 8 7 7 6 6 6 5 5 5 4 5 5 5 6 7 8 8 9 9 9 10 10 11 12 12 13 13 12 11
5 4 4 5 6 7 7 7 7 7 7 6 6 6 6 6 6 6 5 5 3 3 3 3 3 4 5 6 7 8 8 9 9 9 10 10 11 12 13 13 13 12
5 4 4 4 5 5 6 6 6 6 6 6 6 6 6 6 5 4 3 2 2 3 4 4 5 6 7 8 9 10 10 11 11 11 11 11 11 11 12 12 12 12
6 7 7 6 6 6 7 8 7 7 7 7 7 6 6 5 4 3 3 4 5 6 6 7 7 8 9 10 10 11 11 11 11 12 12 12 11 11 11 11 11 12
10 11 12 12 11 10 10 10 9 9 9 8 8 7 7 6 6 6 7 8 8 8 9 9 10 11 12 12 11 11 11 11 11 12 12 11 11 11 10 10 11 12
10 10 11 11 11 11 11 11 10 10 9 9 8 8 8 8 8 8 9 9 10 11 11 12 12 13 13 12 12 12 12 12 12 12 12 12 11 11 10 10 11 11

ECMWFNIL_850_spd_048.txt.gz
Wind_Speed
15 13 12 13 12 11 13 14 14 14 14 13 13 12 11 11 11 11 11 11 11 11 11 11 11 12 11 11 11 11 9 9 9 9 9 9 9 9 9 9 9 8
15 14 12 13 13 12 13 13 13 14 14 13 13 12 12 12 12 11 11 11 11 10 11 11 11 12 12 11 12 11 11 10 10 10 9 9 10 10 10 10 10 10
16 14 12 12 12 12 13 13 13 14 14 14 13 12 12 12 12 11 11 10 9 9 10 10 10 11 11 11 11 11 11 11 11 11 10 10 11 11 11 11 10 11
16 14 13 11 11 12 13 14 14 14 14 14 14 13 13 12 12 11 10 9 9 8 8 8 8 9 9 9 10 10 10 10 10 11 10 10 11 10 11 11 10 10
15 14 14 12 12 12 13 13 14 14 14 14 14 13 13 12 12 11 10 9 8 8 7 7 7 7 7 8 8 8 8 8 8 9 9 9 9 9 10 10 9 10
15 14 14 14 12 13 14 14 14 15 15 14 14 13 13 12 11 11 10 9 8 7 6 6 6 6 6 6 6 6 6 4 5 7 7 6 7 7 8 8 7 8
16 14 15 15 14 13 14 16 16 15 15 14 14 13 13 12 12 11 10 9 8 7 6 5 5 5 5 5 5 4 3 2 2 4 4 3 4 4 5 5 5 5
17 15 16 17 15 14 16 17 17 17 15 15 14 14 14 13 12 12 11 9 8 7 6 6 5 5 4 5 5 3 3 2 2 2 2 1 2 2 2 2 3 3
19 17 18 18 16 15 16 18 18 18 16 15 15 15 15 14 13 13 12 10 9 9 8 6 5 5 4 4 4 2 1 0 0 1 1 1 1 1 1 1 1 1
19 19 19 19 17 15 17 18 18 18 17 16 16 16 16 15 14 13 13 12 11 9 9 8 6 5 5 4 3 2 2 3 3 3 3 3 3 3 3 3 2 2
19 20 20 20 19 16 17 18 18 17 17 17 17 17 16 15 15 15 14 13 12 11 10 9 8 8 8 8 7 6 6 6 6 6 7 7 7 7 6 6 6 5
18 19 18 19 19 17 17 19 18 17 17 18 18 18 17 17 16 16 15 14 13 13 13 13 12 12 12 11 10 11 11 10 9 9 9 10 10 9 7 8 8 7
15 17 16 15 17 18 18 19 19 17 17 17 18 18 17 16 16 16 15 14 14 14 15 16 15 15 14 13 13 13 13 12 11 10 10 10 11 11 9 9 9 9
11 13 15 16 16 17 18 18 18 18 17 18 18 17 15 15 15 16 16 16 15 16 16 16 16 16 16 16 14 13 13 13 12 10 10 10 10 11 12 13 12 12
8 9 12 14 15 14 16 17 17 17 17 18 19 18 15 14 15 15 16 16 16 16 16 16 15 16 16 15 14 13 13 11 9 8 8 9 8 9 13 13 12 13
6 6 7 9 10 10 13 15 16 16 17 18 20 19 17 15 14 15 15 15 15 15 15 15 15 15 15 14 12 11 8 6 5 4 4 4 4 5 8 8 6 7
6 6 7 7 7 7 9 12 13 14 14 16 17 17 17 16 16 16 15 14 13 12 13 13 13 12 10 8 7 6 4 3 3 3 3 2 2 3 4 4 4 4
5 5 6 7 7 7 8 8 9 10 11 12 13 14 15 14 14 12 10 8 8 8 8 9 8 7 6 5 4 4 3 3 3 3 3 2 2 2 2 3 4 4
3 3 4 5 6 7 7 7 8 10 11 12 12 12 11 10 9 8 6 6 6 6 7 7 7 7 6 5 4 4 5 5 4 4 3 3 3 2 2 3 3 4
5 4 4 4 5 5 5 6 7 9 9 9 9 9 8 8 7 7 7 7 7 7 8 8 7 6 6 5 5 6 6 5 5 4 4 4 4 4 3 4 4 4
7 7 6 5 5 5 5 6 7 7 8 9 9 8 8 8 9 9 8 8 8 8 7 7 6 5 5 5 5 5 4 3 3 4 4 5 5 6 6 6 6 6
7 8 8 7 7 7 7 7 7 8 8 9 10 9 10 10 10 9 8 8 8 7 5 5 5 4 3 3 3 3 3 3 4 4 4 5 6 6 7 7 7 8
6 7 8 8 8 8 8 7 6 6 7 8 8 9 9 9 9 8 8 7 7 6 5 4 3 3 3 3 4 5 4 3 2 3 4 6 6 6 7 7 8 8
5 5 6 7 8 9 9 7 6 7 7 7 8 8 9 9 9 8 7 6 5 4 4 4 4 4 4 5 6 6 6 3 1 2 4 6 6 7 7 7 7 8
5 6 6 7 8 9 10 10 10 11 10 8 8 9 9 9 8 7 7 6 6 5 4 4 4 5 6 6 6 7 6 2 0 1 2 3 4 5 7 8 8 8
9 9 9 9 10 11 12 12 14 14 12 10 10 10 9 9 8 8 8 7 7 7 6 6 6 5 5 5 5 6 5 4 1 1 2 1 1 2 5 7 9 9

ECMWFNIL_850_spd_051.txt.gz
Wind_Speed
13 14 14 14 14 14 14 13 13 14 13 14 13 13 13 12 12 11 11 10 9 9 9 9 9 8 8 9 9 7 6 8 8 8 9 9 8 8 8 8 10 10
12 13 13 13 13 14 14 15 15 15 14 14 14 14 14 14 13 12 12 12 11 11 11 10 11 10 9 9 10 9 8 9 9 8 9 9 9 8 8 9 10 11
13 13 14 15 14 14 15 17 18 18 15 14 16 15 14 14 14 13 13 12 11 11 11 11 11 11 10 10 10 10 9 10 10 9 9 10 10 9 10 10 11 10
13 13 14 16 15 14 14 15 17 19 18 17 17 16 14 14 14 14 13 13 12 11 11 11 11 10 10 10 10 10 10 10 10 10 9 9 9 9 10 10 10 10
15 14 14 16 16 15 15 16 16 17 19 20 19 17 15 13 13 13 13 13 12 10 10 9 9 9 9 9 8 8 9 8 9 9 8 8 8 8 8 8 8 9
18 16 16 17 17 16 16 17 17 17 17 19 19 18 16 14 12 12 12 12 11 10 9 8 7 7 7 7 7 7 6 5 7 7 6 6 6 6 7 6 6 6
21 18 17 17 17 17 17 17 17 18 18 18 18 17 16 15 13 12 11 11 10 9 8 7 7 6 6 7 6 6 5 4 5 6 4 3 3 4 3 3 4 4
21 19 17 17 16 16 16 17 18 18 19 18 18 17 16 16 14 13 12 11 11 10 9 8 7 7 7 8 7 6 5 5 5 5 4 2 3 2 1 0 2 2
22 20 18 17 16 15 15 16 18 19 19 19 18 17 17 16 15 14 13 12 11 11 10 9 9 8 8 8 6 5 4 3 4 5 4 3 3 3 2 1 1 1
22 20 17 16 16 16 16 17 18 18 18 18 17 17 17 17 16 14 13 12 12 11 10 10 10 9 8 8 7 6 5 3 3 4 4 4 4 4 4 4 3 2
19 18 17 16 17 19 19 19 18 18 17 17 16 16 17 17 16 15 13 13 12 11 11 11 11 11 10 9 8 7 7 6 6 5 6 6 6 7 7 6 5 5
16 17 17 16 17 19 18 17 17 17 17 16 15 15 16 16 15 14 14 13 12 12 11 11 12 12 10 9 8 8 8 8 8 8 8 8 8 8 8 7 6 6
14 17 18 17 18 19 18 16 16 17 17 17 17 16 16 16 15 14 15 14 12 12 12 11 12 12 10 9 9 8 9 10 10 11 11 12 11 10 8 7 6 6
15 15 17 17 18 20 20 18 19 20 19 18 18 18 17 17 16 15 15 14 13 13 13 12 12 12 10 9 9 9 10 11 12 12 13 13 13 11 8 8 8 7
15 14 14 14 15 17 19 19 21 22 21 18 17 18 19 18 17 16 15 14 13 13 13 14 15 14 12 12 12 12 12 13 13 14 12 11 10 9 7 7 7 8
12 12 12 12 13 14 16 17 19 21 21 18 15 17 18 18 16 15 15 15 14 14 14 16 15 13 13 14 14 14 13 12 11 10 8 6 4 5 5 4 3 4
8 7 8 9 9 9 13 16 17 19 20 18 18 18 17 16 16 14 13 13 14 14 14 13 12 12 12 12 12 11 9 7 4 3 2 2 1 3 2 1 1 2
8 7 7 7 6 7 10 13 15 16 15 15 17 19 19 18 18 17 15 15 14 13 12 10 9 8 7 7 7 6 5 3 1 0 1 2 2 2 1 1 1 1
7 7 6 7 7 7 7 9 11 11 11 11 12 15 17 17 16 14 13 12 9 9 8 6 5 6 6 6 6 6 5 3 2 2 2 2 2 2 2 2 1 1
6 6 6 6 6 6 6 7 8 8 8 8 9 10 10 10 10 9 8 6 5 6 6 7 8 7 7 6 5 4 4 3 3 4 3 3 3 3 3 2 3 2
6 6 5 5 5 5 5 5 5 5 5 6 7 7 7 7 7 7 6 6 8 8 6 7 7 6 6 5 4 4 3 3 2 3 3 2 2 2 3 3 5 5
6 6 5 5 5 5 5 4 4 4 4 5 5 5 6 7 6 6 7 8 8 7 6 6 6 5 5 4 3 2 2 3 1 1 3 2 1 2 4 5 5 5
5 4 4 5 5 5 5 5 5 6 5 5 6 5 6 8 7 7 8 8 8 7 5 6 6 4 4 3 2 1 2 3 2 2 3 2 1 1 4 6 5 4
4 3 3 4 3 4 5 5 5 6 6 6 6 6 6 7 7 7 8 8 8 8 6 5 5 4 4 3 2 2 1 3 3 3 2 1 1 1 3 6 5 5
2 2 2 2 3 3 4 5 4 4 5 6 6 7 7 8 8 8 9 8 9 9 9 8 6 5 4 3 3 3 2 3 4 4 4 3 2 2 4 6 5 5
3 4 4 4 5 5 6 6 6 6 7 7 7 8 9 10 10 10 10 10 10 10 10 9 8 7 5 4 4 3 3 4 4 4 5 5 4 4 5 7 7 5

ECMWFNIL_850_spd_057.txt.gz
Wind_Speed
17 16 16 16 17 17 18 17 14 12 10 10 11 12 12 10 10 10 11 12 12 13 15 15 13 10 9 11 11 12 12 13 15 14 13 13 14 13 14 15 16 16
17 15 15 16 17 18 18 16 14 12 11 10 11 12 11 9 10 10 11 12 13 13 14 13 12 10 10 12 12 12 11 11 13 14 14 14 13 13 14 16 17 17
18 16 16 17 17 18 17 15 14 12 12 11 11 11 11 11 12 13 13 14 14 14 14 14 14 14 15 15 15 15 14 14 14 14 13 13 12 14 16 16 16 16
19 17 17 16 17 18 17 16 16 15 13 12 12 12 12 13 14 15 16 15 16 17 17 16 17 17 17 17 17 17 17 17 16 15 15 14 14 15 17 17 17 16
18 17 16 16 17 18 16 16 17 16 14 13 13 14 14 15 15 16 17 16 16 17 17 17 17 17 17 16 16 17 17 16 16 15 15 15 14 15 15 15 16 17
17 17 17 16 17 18 17 17 18 16 15 14 14 15 16 16 16 17 16 16 15 16 16 16 16 16 15 15 15 15 14 14 13 12 12 12 12 13 13 12 11 13
18 17 18 18 17 18 18 19 18 16 15 14 14 16 17 16 17 17 16 15 15 14 14 13 13 13 13 12 13 13 13 11 9 8 8 9 9 9 10 10 10 11
20 17 18 19 19 18 18 19 18 16 15 15 15 17 17 17 17 16 16 15 14 13 12 11 10 10 10 10 9 10 13 12 7 5 6 7 7 7 6 6 7 9
20 17 17 17 17 17 17 18 17 15 14 14 15 16 16 16 16 16 15 14 13 12 11 9 9 9 8 7 6 8 12 13 9 7 7 7 7 7 6 5 5 7
17 17 17 14 13 13 15 16 16 15 15 14 14 16 16 15 15 15 14 12 11 10 9 8 8 9 8 7 6 8 12 12 10 8 8 9 9 7 6 5 5 6
19 19 17 14 14 13 14 15 15 15 15 14 13 15 16 15 14 14 13 11 11 10 9 8 8 9 9 8 8 8 9 9 7 6 6 8 8 8 7 6 5 6
25 22 18 16 16 15 15 15 13 12 13 13 13 13 14 13 12 11 12 13 12 12 11 10 10 10 9 8 8 8 7 6 5 4 5 6 7 8 9 8 7 7
25 22 19 17 17 17 16 15 13 12 12 12 13 13 13 13 11 10 12 14 13 12 13 13 12 12 11 10 10 9 8 7 6 6 7 7 7 8 9 10 9 8
22 21 20 20 21 21 18 15 13 11 11 13 14 14 13 14 14 13 13 13 13 13 13 13 12 11 11 11 12 12 10 9 7 7 8 9 9 9 9 10 9 9
21 21 20 20 21 20 18 16 14 12 11 13 15 15 15 16 16 16 15 15 15 14 15 14 13 11 11 11 13 13 12 10 8 8 9 10 11 11 10 10 10 10
21 22 21 19 19 20 20 19 17 15 15 16 17 17 17 18 18 17 17 17 17 17 17 16 14 14 12 11 12 13 12 11 10 9 9 10 11 10 9 10 10 10
18 19 18 17 17 19 20 20 20 20 20 20 19 19 19 19 19 19 18 18 18 19 18 17 15 15 14 12 11 13 13 12 10 7 6 7 7 9 9 10 11 10
13 16 17 16 16 17 18 20 21 21 22 23 22 21 21 21 21 20 19 18 19 19 19 17 15 14 13 12 11 12 12 10 8 7 7 7 9 10 10 10 10 9
11 13 14 15 15 16 17 19 21 22 24 24 23 22 23 23 22 21 20 19 20 20 19 18 16 15 14 12 11 11 9 8 9 10 10 10 11 11 11 11 10 9
10 10 10 11 12 13 15 16 19 22 23 23 23 22 22 22 21 20 18 18 19 20 19 18 17 17 14 11 10 10 10 12 13 13 13 13 13 12 12 13 12 10
10 10 10 10 10 9 11 12 13 16 17 18 18 18 18 19 19 18 18 18 19 19 18 18 17 15 11 9 11 13 15 15 14 13 14 13 13 12 12 12 12 11
10 10 10 10 9 7 8 9 10 11 12 12 13 14 16 17 17 17 17 16 16 16 15 14 13 11 11 12 13 14 14 14 14 14 15 15 14 13 13 12 12 11
10 9 9 9 9 7 6 6 7 9 9 10 11 12 13 14 14 13 13 12 11 11 11 11 12 13 13 13 14 13 13 14 16 18 18 18 18 18 17 15 14 13
16 13 11 9 7 6 5 5 6 6 6 7 8 9 9 9 9 9 9 9 9 10 11 11 11 13 13 13 12 12 14 17 18 19 18 17 17 18 17 15 14 14
15 14 13 12 9 6 4 4 4 4 4 5 5 4 5 5 6 7 8 8 9 11 11 11 11 12 13 12 12 14 17 19 19 18 18 16 14 13 12 12 12 12
10 8 8 9 8 7 6 5 4 3 3 5 4 3 4 5 6 7 9 9 10 11 11 10 11 12 12 13 15 16 18 19 18 17 18 18 14 12 11 11 11 11

ECMWFNIL_850_spd_060.txt.gz
Wind_Speed
20 18 15 15 16 16 16 16 15 14 13 13 12 11 12 14 17 18 15 12 10 9 8 9 11 12 13 13 13 15 17 16 15 14 14 14 14 13 11 10 10 11
21 17 15 15 17 17 17 15 15 14 13 14 13 12 12 13 14 15 15 13 11 10 9 9 11 11 12 13 13 14 16 15 13 12 11 12 12 12 12 12 11 11
20 17 16 16 17 18 17 16 15 13 12 14 14 13 13 14 14 15 15 14 12 11 10 10 12 11 11 12 12 13 13 13 12 11 11 11 11 13 14 14 13 13
20 17 16 16 17 18 18 17 15 13 12 13 14 13 13 15 16 16 16 15 13 12 12 12 14 14 14 15 15 15 15 14 14 14 14 14 13 15 17 17 15 15
19 17 16 16 17 18 18 16 14 13 12 12 12 13 14 16 17 17 17 16 15 15 15 16 17 18 18 18 18 18 17 17 17 16 16 16 15 15 17 17 16 16
19 17 16 17 18 19 17 15 14 13 11 11 11 13 15 17 18 19 19 18 18 18 18 19 19 19 19 19 18 18 17 17 17 16 15 16 16 15 14 15 16 16
20 18 18 18 19 18 15 14 14 12 10 9 10 12 15 18 19 20 20 20 19 19 19 19 19 19 19 19 18 17 16 15 15 14 14 13 14 13 13 13 14 17
21 20 19 19 19 17 13 13 14 11 9 8 9 12 15 17 19 20 20 19 19 19 19 18 18 18 18 17 17 16 16 15 14 13 13 13 13 13 13 13 14 16
22 21 21 20 18 15 13 14 14 11 10 10 9 12 15 15 17 19 19 18 19 19 18 18 17 17 17 15 14 14 15 15 14 12 12 12 13 13 13 14 15 16
22 22 24 22 18 15 15 15 15 13 12 11 10 13 16 15 15 17 17 18 18 17 18 17 16 15 15 14 13 13 13 14 13 11 10 11 11 12 13 14 15 16
20 22 22 19 16 16 17 17 16 14 13 12 11 14 16 16 16 16 17 18 17 16 16 17 16 14 13 13 14 14 14 13 12 10 10 10 10 11 11 12 12 13
20 21 20 19 19 19 18 17 16 14 14 13 13 15 17 18 17 18 18 18 17 16 15 15 14 13 11 11 13 15 15 13 11 10 9 10 11 11 10 10 10 11
23 21 22 22 22 21 20 18 16 15 16 17 16 15 18 19 19 20 19 18 17 16 14 13 12 12 11 10 11 13 15 14 11 10 9 10 12 12 12 11 11 11
23 21 22 22 20 19 19 17 17 19 18 18 18 18 19 21 20 20 19 18 17 16 15 14 13 12 12 12 12 12 13 13 12 11 10 10 13 14 14 14 14 14
23 22 22 21 19 18 17 15 17 19 19 18 19 20 21 21 20 19 18 18 18 17 17 16 15 14 14 14 14 13 13 14 14 13 12 12 13 15 16 16 16 16
24 24 23 21 20 19 19 19 18 18 17 17 19 20 20 21 20 19 18 18 18 19 19 18 17 16 14 14 14 14 14 16 16 15 14 14 14 16 18 18 17 17
23 24 23 23 21 20 20 20 19 18 17 18 19 20 19 20 20 19 18 18 18 18 19 18 17 17 16 15 15 15 15 16 17 17 17 16 16 17 18 19 19 18
21 22 22 22 22 20 21 21 19 19 19 19 19 20 20 20 19 19 19 19 19 19 19 19 18 18 17 17 17 16 16 16 17 18 18 18 18 17 17 18 18 18
17 19 20 21 20 20 22 22 22 21 20 20 20 21 20 20 20 20 20 20 21 21 20 20 20 19 19 18 17 16 16 16 18 18 18 17 15 14 15 16 18 18
11 14 17 18 18 19 21 22 23 23 21 21 21 21 21 20 20 20 21 21 22 22 21 22 21 21 20 19 18 17 16 17 17 17 16 15 13 13 15 17 18 17
10 11 13 14 15 16 18 21 24 25 23 22 22 21 21 20 20 20 21 21 22 22 22 22 22 21 21 20 19 19 18 17 16 16 17 16 15 15 16 17 18 17
10 11 11 12 12 12 14 16 19 19 20 22 22 22 21 20 20 20 21 21 21 22 22 21 21 21 21 20 20 19 17 17 18 19 19 19 17 17 18 18 18 17
11 10 10 10 9 8 7 7 8 9 11 14 17 18 19 19 19 19 20 20 21 21 21 21 21 21 21 20 18 17 17 19 20 20 20 20 19 19 19 18 17 15
14 12 10 9 8 6 5 3 2 3 5 7 9 11 12 13 15 16 17 18 19 19 19 19 19 18 17 16 16 17 19 20 20 20 20 20 20 19 18 17 16 14
15 14 12 11 9 6 5 4 3 2 3 4 5 6 8 9 11 12 13 14 14 15 15 15 14 14 15 16 17 19 20 20 20 20 20 20 20 19 18 17 16 15
13 13 12 11 10 8 6 6 6 5 4 4 4 5 6 7 8 9 9 10 11 12 13 13 13 13 15 17 18 19 20 21 22 23 23 22 22 21 20 19 18 17

ECMWFNIL_850_spd_063.txt.gz
Wind_Speed
16 14 12 12 12 11 10 10 9 7 6 5 5 5 7 10 10 9 8 7 5 3 3 7 8 9 11 12 13 12 12 11 9 9 8 9 8 8 8 7 6 7
17 14 13 13 13 12 10 10 9 9 8 8 8 7 7 9 10 10 8 8 6 4 4 6 8 8 10 13 14 14 13 12 11 10 9 8 8 8 7 7 7 8
17 15 13 13 13 13 12 11 11 10 9 10 11 9 8 8 10 11 10 9 7 5 4 5 7 8 9 11 13 13 13 12 12 11 10 10 8 7 7 7 8 9
19 17 14 13 13 13 13 13 12 10 8 9 11 11 9 9 10 11 11 10 8 6 4 4 6 8 8 9 11 11 10 10 10 11 12 12 10 8 7 8 10 11
20 17 15 14 13 14 14 13 12 9 8 8 10 11 10 10 11 11 11 10 8 6 5 5 7 9 9 10 10 10 10 9 9 9 10 11 11 11 9 8 9 11
20 18 16 14 14 15 14 13 11 8 8 9 11 11 11 12 12 12 11 10 9 7 6 7 9 11 12 12 12 12 11 11 10 10 10 12 14 14 12 9 8 9
20 19 17 15 14 15 14 13 10 8 9 10 11 11 11 12 13 13 12 11 10 9 9 10 12 13 13 13 13 13 13 13 12 11 10 12 14 15 14 12 10 9
22 20 17 15 15 15 15 13 10 9 10 10 11 10 11 12 14 14 13 12 12 13 13 13 14 14 14 13 13 12 13 12 12 11 11 11 13 14 14 13 12 11
23 20 18 16 16 16 15 13 11 10 9 9 9 10 12 13 15 16 15 14 15 16 16 15 15 15 14 13 13 11 11 10 10 10 9 9 10 10 11 12 12 12
24 22 19 17 17 18 16 14 13 10 8 9 11 12 13 15 17 17 17 17 18 18 18 17 16 16 15 13 12 11 10 10 10 9 8 8 8 7 8 9 10 11
26 25 21 19 20 19 17 16 14 10 9 10 11 12 13 15 17 18 18 19 19 18 18 18 17 16 14 13 12 11 10 10 10 9 7 7 7 7 8 9 9 10
28 27 24 23 23 20 18 18 16 13 13 12 12 12 13 15 17 18 18 18 19 18 18 17 16 15 13 12 12 11 11 11 9 8 7 6 6 7 8 9 9 10
28 26 24 25 26 23 20 19 18 18 16 15 14 13 14 15 17 18 18 18 19 18 17 16 15 14 13 12 11 11 12 12 10 9 8 7 8 8 9 10 10 10
26 23 22 26 27 26 25 24 23 22 19 18 18 18 17 16 16 18 19 19 19 18 16 16 16 15 13 11 10 10 12 13 13 12 10 10 10 11 12 12 12 12
25 24 25 27 26 28 32 29 25 23 21 20 20 21 21 20 18 19 21 21 20 19 18 17 17 16 14 12 11 10 11 13 14 14 14 13 13 13 14 15 16 16
23 24 24 24 24 28 32 30 25 24 22 22 22 22 24 24 22 21 22 22 22 21 20 19 18 17 15 14 12 12 12 14 15 16 17 17 16 16 16 17 18 19
21 22 23 24 25 27 29 28 26 26 25 23 24 25 26 26 24 22 23 23 22 22 21 20 19 18 16 15 14 14 14 15 16 17 19 20 20 19 19 19 19 21
20 22 24 24 24 24 25 25 24 24 24 23 23 24 25 26 24 23 23 23 22 22 22 21 20 19 17 16 16 15 16 17 17 19 20 21 22 22 21 21 21 22
18 20 20 20 20 21 21 21 20 21 21 21 20 21 23 24 23 23 24 24 23 22 22 21 20 19 18 18 18 18 18 19 19 19 20 21 22 23 23 23 24 24
17 19 19 19 20 20 20 20 20 20 20 20 19 19 22 22 22 24 26 25 24 23 21 21 20 19 19 19 19 19 19 20 20 20 20 20 22 24 25 25 25 24
11 15 18 18 18 19 20 20 20 19 20 20 20 22 23 23 24 24 25 25 26 25 23 22 20 20 20 20 20 20 20 20 21 21 21 22 23 25 25 23 21 20
6 8 13 14 14 14 16 17 16 16 18 20 21 23 22 23 24 24 24 26 27 25 24 23 22 22 22 22 22 22 22 22 22 22 23 23 24 24 22 20 18 17
6 6 8 9 9 9 9 10 11 13 15 18 20 21 19 17 19 22 23 23 22 20 20 21 21 21 22 22 22 22 22 23 23 24 24 23 22 21 20 18 17 17
8 6 6 7 7 7 7 8 9 10 11 12 14 15 14 12 13 16 18 18 17 16 18 19 19 19 20 21 22 22 23 23 23 23 22 21 21 20 19 19 18 17
11 9 8 8 8 7 6 6 6 7 8 9 9 8 8 9 10 12 14 15 15 15 17 17 18 19 20 21 22 22 22 22 21 21 21 20 21 21 20 20 19 17
8 8 8 8 8 7 6 5 4 4 5 7 8 8 8 8 9 10 11 12 13 14 15 16 17 18 18 19 19 19 19 19 19 20 21 21 22 22 22 21 20 19

ECMWFNIL_850_spd_069.txt.gz
Wind_Speed
14 13 10 8 9 10 11 11 12 12 10 9 9 9 10 10 10 10 9 7 4 3 3 5 8 9 9 9 8 8 8 7 7 7 7 7 8 7 6 5 3 3
15 13 10 8 9 11 10 10 11 11 9 9 9 9 10 11 12 11 9 7 5 4 5 6 9 10 10 9 9 9 9 7 7 7 7 7 6 6 5 5 4 3
16 13 10 8 9 10 11 11 12 11 9 9 9 9 11 13 13 12 10 7 6 5 6 7 8 10 11 10 10 9 8 7 6 6 6 5 4 3 3 4 5 4
16 14 11 9 8 10 12 12 12 11 9 8 8 9 13 14 13 12 10 8 7 7 7 7 7 9 11 11 10 8 7 6 5 5 5 4 4 5 5 5 6 6
14 13 12 10 10 11 13 12 12 11 9 8 8 9 12 14 12 11 10 9 9 8 8 8 8 9 10 11 10 9 7 6 5 4 3 4 6 8 8 8 7 7
13 13 12 10 10 11 12 11 11 11 9 9 9 8 10 12 12 10 10 10 10 10 9 9 8 9 10 11 10 9 7 5 4 4 3 5 9 10 9 8 8 7
14 13 12 10 10 10 10 10 10 10 9 9 9 9 9 10 11 10 10 10 10 10 10 10 9 10 11 11 10 9 7 6 5 5 6 8 9 9 10 9 8 6
14 14 13 12 11 10 9 9 10 10 10 9 10 10 9 9 10 10 11 11 11 11 10 10 10 10 11 12 11 10 8 7 7 7 8 8 7 7 9 9 9 7
16 15 14 13 12 11 10 9 10 11 10 10 11 11 9 9 10 10 11 12 11 11 10 10 11 12 13 13 12 11 10 9 9 8 8 7 6 5 5 6 7 7
17 16 15 15 14 12 11 10 11 11 10 11 11 10 9 10 11 12 12 12 12 11 11 11 12 13 13 13 13 12 11 9 8 8 7 6 5 3 3 3 3 5
18 16 16 16 15 13 12 11 12 12 11 11 11 10 9 10 12 13 13 13 12 12 12 12 13 13 13 12 12 11 10 9 8 7 6 6 5 4 3 3 3 4
19 17 17 17 17 14 12 12 12 12 11 12 12 10 10 10 11 13 13 13 13 12 13 13 13 13 12 11 11 10 9 8 7 6 5 5 4 4 3 2 2 3
19 18 20 19 18 15 13 13 14 12 11 11 11 10 9 9 11 12 12 12 12 12 13 13 12 12 11 10 9 9 8 7 6 5 5 4 4 3 3 2 2 2
17 18 18 16 15 16 15 14 15 13 11 10 11 10 9 8 9 10 10 11 11 11 12 11 11 10 10 9 8 7 6 6 5 6 6 5 4 3 3 2 2 2
15 16 14 12 15 18 17 16 16 14 11 10 10 10 9 8 7 7 7 8 10 11 11 11 11 10 10 10 8 7 6 5 5 5 5 6 5 4 4 4 4 5
14 14 12 12 16 17 17 19 19 15 12 11 10 10 9 8 7 6 6 8 9 10 11 11 12 11 11 10 9 8 7 7 5 4 4 4 5 5 6 6 7 8
14 14 13 13 15 17 19 21 19 16 13 12 12 10 8 7 8 7 8 8 9 10 11 11 12 12 11 10 10 9 9 8 6 5 5 5 5 6 7 8 10 11
13 14 16 17 17 19 22 21 19 19 20 17 15 14 12 10 9 9 9 9 9 10 11 11 12 13 12 12 11 11 11 10 9 8 7 7 7 8 9 10 11 12
9 11 15 17 17 18 19 18 18 20 22 20 18 18 17 13 9 9 10 10 10 10 10 10 11 12 13 12 12 12 12 11 11 10 10 10 10 10 11 12 13 14
8 12 15 16 15 15 16 16 18 19 20 21 20 17 15 13 11 11 11 11 11 11 10 10 11 12 13 13 13 12 12 13 13 13 13 12 12 13 13 14 15 15
6 10 12 13 12 12 13 15 17 18 19 21 21 18 15 14 13 13 13 12 12 12 11 11 11 13 14 14 13 13 13 14 15 15 15 15 15 15 15 16 16 17
5 5 6 8 9 10 11 13 14 15 17 18 18 16 15 14 15 15 14 13 12 12 12 11 12 14 15 15 15 15 16 16 17 18 18 17 17 17 17 17 18 18
6 4 3 4 6 8 9 10 11 12 14 15 15 16 15 16 16 15 14 14 14 14 13 13 13 14 15 16 17 18 19 20 20 21 20 19 18 18 18 19 19 19
9 6 5 5 5 6 7 9 10 11 12 13 13 14 15 16 16 15 15 15 16 16 15 15 15 15 15 17 18 19 21 21 22 22 21 20 20 20 20 20 20 20
14 11 8 7 5 4 4 6 7 8 9 9 11 13 15 16 15 14 14 15 16 16 16 16 17 17 17 17 18 20 21 22 22 22 21 21 21 21 21 21 22 22
13 12 11 10 8 6 5 3 2 3 4 4 5 8 10 12 12 12 12 12 13 13 12 12 15 18 18 17 17 18 20 21 20 20 20 20 21 21 22 22 23 22

ECMWFNIL_850_spd_072.txt.gz
Wind_Speed
13 13 13 12 11 10 11 14 15 15 14 14 14 15 14 13 12 11 10 9 8 7 7 8 8 10 10 10 9 8 7 7 8 9 10 9 8 8 7 6 6 6
13 14 14 13 12 12 12 14 15 15 14 14 15 14 13 13 13 12 11 10 8 7 7 8 10 12 12 11 11 11 10 10 10 10 10 9 8 8 7 6 6 6
15 14 13 12 12 13 14 14 16 15 13 13 14 14 14 15 15 13 12 9 7 7 8 10 12 13 13 13 13 12 12 11 11 10 9 7 6 6 6 6 6 7
17 15 13 11 11 13 14 15 16 14 13 13 14 14 15 17 16 14 12 9 8 8 9 10 12 13 13 14 13 13 12 11 11 9 7 5 5 6 6 6 7 8
18 16 13 12 11 13 15 16 16 13 13 13 13 14 16 18 17 15 12 11 9 9 10 10 12 13 14 14 13 12 11 10 9 8 6 6 7 7 7 7 8 9
18 16 14 12 12 14 16 17 17 14 13 13 12 14 17 18 17 14 13 12 11 10 10 10 12 14 14 13 12 11 10 8 9 8 7 8 9 9 8 8 8 9
19 16 14 13 13 15 16 16 16 14 13 13 13 14 17 17 15 14 13 12 11 11 10 10 11 14 14 12 11 10 10 9 9 9 9 8 9 8 8 8 9 9
20 17 15 14 14 16 15 14 14 15 13 13 13 14 16 16 14 13 13 12 11 11 10 10 10 13 14 12 11 10 10 11 11 10 10 9 9 8 8 9 9 9
20 19 17 15 15 16 16 14 14 14 13 13 13 13 14 14 14 14 13 12 12 11 11 11 11 13 14 12 11 11 11 13 13 12 11 10 9 8 8 8 9 10
19 19 18 16 15 15 15 14 13 14 14 13 13 13 13 13 13 14 13 12 12 12 12 13 13 14 14 13 12 12 12 13 13 12 11 9 8 8 8 7 8 9
18 18 18 16 14 14 14 12 12 14 14 13 13 13 13 13 14 14 14 13 12 12 12 13 14 14 14 14 14 14 13 12 11 11 10 9 8 8 7 7 6 7
18 18 18 17 15 14 13 12 12 14 13 12 13 13 13 13 14 15 16 14 12 11 12 13 14 15 14 14 14 14 13 12 11 10 9 8 8 7 7 6 6 6
17 17 17 17 18 17 15 12 12 13 12 11 12 12 12 12 13 15 16 14 11 11 12 14 15 15 14 13 13 12 11 10 9 9 8 7 7 6 6 6 5 5
14 17 17 16 17 17 16 14 13 13 12 12 12 11 11 11 12 14 15 14 13 12 13 15 15 14 14 12 11 10 9 8 8 7 7 7 7 6 6 6 5 4
13 16 18 17 16 16 17 17 16 15 13 12 12 11 10 10 11 12 14 15 15 14 14 15 15 14 13 12 11 9 8 7 7 7 7 7 7 7 6 6 5 4
14 17 19 19 18 18 20 20 19 17 15 13 13 11 10 11 11 11 12 12 13 13 13 14 14 14 14 13 11 9 8 7 7 7 8 8 8 8 7 7 6 5
14 19 21 20 19 19 20 21 21 21 19 16 13 12 11 11 11 11 11 11 10 10 10 11 12 13 13 13 12 10 9 8 7 8 8 8 9 8 8 8 7 7
12 18 21 20 18 19 20 21 23 22 21 18 14 12 11 11 9 9 10 10 9 8 9 9 10 12 12 12 12 11 11 10 9 8 9 9 9 9 8 8 8 8
9 14 18 20 20 21 22 22 21 19 18 17 15 13 11 10 9 9 9 10 9 8 9 10 10 11 13 14 13 13 13 13 11 10 10 10 10 10 9 9 9 9
9 11 14 17 18 20 22 21 20 20 19 20 21 19 15 10 9 10 11 11 11 10 10 11 11 12 13 14 15 14 14 14 14 14 13 12 12 12 11 11 10 10
10 9 10 11 12 13 16 17 17 19 21 22 25 26 20 13 10 12 14 13 12 11 12 13 13 14 15 15 16 16 15 16 16 16 16 16 16 16 15 14 14 14
10 9 9 9 9 9 12 13 15 18 21 21 23 23 19 15 12 12 13 13 12 11 13 15 15 16 17 17 18 18 18 17 17 17 17 18 18 18 18 17 17 17
10 10 9 9 9 9 10 11 12 14 16 18 19 18 16 14 13 12 11 11 12 12 12 14 15 16 16 17 18 18 18 18 17 17 18 18 17 18 18 18 19 19
10 10 11 10 9 8 9 9 9 9 10 11 12 12 11 11 11 10 9 9 10 12 11 11 14 14 14 14 15 16 17 18 18 17 17 18 18 18 18 19 20 21
13 12 12 11 10 8 8 8 8 7 8 8 8 8 8 7 7 7 8 9 10 11 10 10 12 12 13 13 14 15 16 17 17 16 16 17 17 15 16 17 18 20
16 15 14 14 14 13 10 9 7 5 5 4 6 6 6 5 5 4 4 5 6 7 8 8 9 9 11 12 14 15 16 16 16 15 13 13 13 11 11 12 15 16

ECMWFNIL_850_spd_078.txt.gz
Wind_Speed
21 19 19 20 20 21 20 19 18 17 17 15 13 13 13 12 13 13 12 13 14 12 12 12 13 12 11 11 10 5 5 5 7 6 6 5 5 6 6 6 8 8
21 19 18 19 20 20 19 17 18 17 18 18 15 16 16 15 15 13 12 12 13 13 11 10 10 10 8 10 11 7 5 6 6 6 6 6 6 6 6 7 8 8
20 19 18 18 19 19 17 16 17 17 18 19 17 17 16 14 13 11 10 11 11 11 10 9 11 11 8 11 10 6 6 8 7 8 8 7 6 6 6 7 8 9
18 18 18 19 19 18 16 17 18 18 18 19 18 16 14 12 12 12 11 11 10 10 10 11 14 11 9 11 9 6 8 8 8 8 8 7 6 4 5 7 8 9
18 19 19 19 19 18 18 18 19 18 17 16 16 15 14 14 13 12 12 10 8 10 11 12 13 12 12 12 10 10 9 7 7 7 6 6 4 3 5 7 9 9
18 20 19 17 17 19 19 18 18 17 15 15 15 14 16 16 12 10 10 8 7 10 12 12 12 12 12 11 10 10 8 6 7 7 5 5 4 4 4 5 8 10
18 19 18 16 16 18 18 17 16 15 15 16 16 14 16 16 11 9 9 8 8 10 11 12 12 12 12 10 9 10 7 5 8 7 4 4 6 6 3 3 7 9
19 19 18 16 15 16 17 15 15 15 16 17 15 14 16 15 11 10 10 9 9 9 9 11 11 12 11 10 9 9 7 7 9 7 5 5 6 6 4 4 6 7
19 19 17 16 16 17 17 16 16 14 15 17 15 14 16 14 11 12 11 10 9 8 8 10 10 11 10 10 8 8 9 11 9 6 7 7 7 5 5 5 6 7
21 20 18 18 19 19 19 18 16 13 13 15 14 15 16 13 11 12 11 10 9 8 8 9 9 10 10 8 7 8 11 10 7 7 9 9 6 6 5 4 7 8
24 23 21 21 21 19 18 16 14 13 13 14 14 15 16 13 11 11 10 10 9 8 8 9 9 9 9 8 7 9 11 9 9 10 8 6 7 8 5 4 6 7
27 25 24 23 22 20 17 14 13 14 14 14 14 14 14 12 11 11 10 9 9 8 8 9 9 9 9 8 9 11 11 9 10 9 6 7 9 9 6 6 8 7
27 24 23 24 23 21 19 16 14 14 14 14 14 14 14 12 10 11 10 9 9 8 8 9 9 9 9 9 10 11 11 10 11 9 7 8 8 6 8 9 8 7
26 25 23 22 22 22 21 19 16 14 14 14 14 14 14 13 11 11 11 10 9 9 8 9 10 9 10 10 9 10 11 11 11 9 8 10 8 6 8 8 7 8
25 25 24 23 21 21 20 18 17 14 13 14 13 13 14 13 11 12 13 11 9 9 9 11 11 11 12 11 10 10 9 9 10 8 7 8 7 6 7 7 6 8
25 25 25 24 23 23 20 18 17 16 13 13 13 12 13 12 12 13 14 12 11 11 12 13 13 13 14 13 12 10 9 8 8 7 5 5 5 5 5 6 5 7
24 24 24 24 24 24 23 21 21 19 16 15 14 13 13 13 12 13 13 12 13 14 15 16 14 14 15 14 13 12 11 9 8 6 5 4 5 5 6 6 7 9
21 22 22 23 23 22 23 23 23 22 21 20 18 16 16 16 15 15 15 14 13 13 15 16 14 15 16 15 14 14 12 10 8 6 5 6 6 7 8 9 10 12
17 19 20 21 22 22 22 22 22 23 23 22 21 19 19 19 18 18 18 17 15 14 15 16 15 15 17 16 15 15 13 11 9 7 6 6 8 9 10 11 11 14
13 16 18 19 20 21 21 21 21 23 22 21 20 19 18 18 18 18 17 17 16 13 11 12 13 14 16 17 16 14 12 11 10 9 7 7 7 9 10 11 13 14
7 9 12 14 16 17 19 20 21 21 21 19 17 15 15 15 15 14 13 13 13 11 9 9 9 9 11 12 11 10 8 8 9 10 11 9 8 10 10 11 13 13
11 9 8 9 11 13 16 18 18 16 17 17 16 14 14 14 13 11 11 10 10 9 8 7 6 7 9 10 9 8 9 11 13 14 17 16 14 14 15 14 13 15
14 14 13 10 8 9 11 13 13 13 15 17 14 12 12 12 12 12 11 11 10 8 8 10 10 10 11 12 13 14 15 15 15 16 18 19 17 17 17 17 17 17
15 15 15 14 11 10 9 9 8 10 16 17 13 10 10 11 13 14 13 13 12 10 10 12 13 14 14 13 14 15 15 15 15 15 16 17 17 17 17 17 18 18
13 13 13 13 13 13 12 10 9 9 13 16 13 11 11 12 14 15 14 13 12 10 10 11 11 12 13 13 13 14 14 15 16 16 16 16 16 16 16 17 16 14
14 14 13 11 11 13 13 13 13 11 11 12 12 12 13 13 13 13 13 14 12 10 9 10 11 12 13 13 14 14 14 15 15 15 15 15 15 15 14 14 15 14

ECMWFNIL_850_spd_084.txt.gz
Wind_Speed
15 15 16 16 18 19 19 20 21 20 20 21 21 19 19 20 18 17 17 17 17 17 17 17 16 16 15 14 13 11 11 12 12 13 13 13 13 14 14 13 13 13
15 16 15 16 18 18 18 19 20 20 19 19 20 20 20 20 19 18 18 18 18 18 17 17 17 16 15 14 12 11 11 12 12 13 12 12 12 13 13 12 12 13
16 16 16 18 19 19 18 19 20 19 19 19 20 20 20 19 19 19 19 19 18 17 16 15 16 15 14 13 11 9 10 12 13 12 12 12 12 12 11 10 11 12
16 18 19 20 21 22 20 20 21 20 20 21 21 20 19 18 18 19 19 19 19 18 16 15 14 14 13 12 10 8 9 12 13 13 12 12 11 11 11 11 11 11
17 19 21 20 21 22 22 22 23 23 23 22 21 20 19 19 19 19 19 18 18 19 18 16 15 14 13 12 10 8 10 13 13 13 12 11 11 10 11 12 12 11
19 20 20 20 20 21 22 23 23 24 25 24 22 21 20 20 19 18 17 17 17 18 18 18 17 15 14 13 11 11 12 13 14 13 12 10 10 10 10 11 12 11
21 22 20 20 21 22 24 25 23 23 25 23 23 21 19 18 17 16 16 16 17 17 18 19 18 16 15 13 13 13 13 13 13 12 11 10 10 9 10 11 11 11
23 23 21 21 23 24 26 26 24 23 24 22 21 20 18 17 16 16 15 15 17 19 18 18 17 16 14 13 13 14 14 13 12 11 10 10 10 9 9 11 11 11
23 22 21 23 26 27 27 25 23 23 22 21 20 20 19 17 16 15 14 15 20 22 20 18 17 16 14 13 13 15 15 14 13 11 11 10 10 8 8 11 12 11
24 23 23 26 28 28 26 24 23 23 22 21 20 20 19 16 15 14 14 18 22 22 21 20 18 17 15 14 14 15 14 13 12 12 11 10 8 5 6 10 12 11
25 25 27 28 29 28 27 26 24 23 22 21 21 20 18 16 15 15 16 19 21 22 22 21 18 17 16 15 15 13 12 11 12 12 12 10 7 4 6 9 11 11
28 29 29 29 29 29 27 27 26 23 22 21 21 20 18 17 17 17 16 16 18 22 23 20 18 17 16 15 14 13 13 12 12 12 12 10 7 6 7 9 10 11
29 30 29 29 30 29 27 25 24 21 21 21 21 21 19 19 19 17 15 14 15 21 22 19 19 17 13 13 14 14 14 11 11 13 14 12 10 9 10 11 11 12
27 28 29 29 28 26 24 22 20 19 20 23 23 21 19 19 19 17 15 15 16 19 19 19 19 15 12 15 17 16 14 11 11 15 16 15 13 12 12 12 13 15
25 24 26 26 24 21 21 20 18 17 20 25 25 21 19 20 19 18 17 17 17 17 17 18 17 13 14 18 19 17 15 12 12 15 16 15 15 14 13 12 13 16
24 23 22 22 21 21 21 21 19 18 22 25 23 20 20 21 20 19 18 18 18 17 17 17 16 15 18 20 18 16 15 15 15 15 15 14 14 15 14 12 12 13
23 24 22 21 22 21 21 22 20 20 24 24 21 21 22 22 21 20 19 19 19 18 17 17 17 18 19 18 17 17 17 16 16 15 14 14 13 14 14 12 11 11
21 23 22 22 23 21 21 22 21 22 25 24 22 23 24 23 22 20 19 20 21 19 18 18 18 18 18 17 17 18 17 17 16 14 13 13 12 12 12 10 9 9
21 21 22 22 22 22 24 24 22 23 25 24 23 24 24 23 21 19 19 20 21 20 19 19 19 19 19 18 18 17 17 17 16 14 13 13 12 12 11 10 7 6
19 17 19 23 23 23 25 25 23 24 26 25 25 26 26 23 19 18 20 21 21 21 20 20 20 20 20 19 18 18 18 17 16 15 13 12 11 9 8 7 5 4
16 15 17 22 24 25 26 25 26 28 28 27 26 26 25 23 20 20 21 21 21 21 20 21 21 21 21 20 19 19 18 18 17 14 10 7 6 4 3 3 4 5
13 15 17 20 23 24 24 26 28 28 26 27 27 25 25 23 21 21 21 20 20 20 20 21 21 20 19 19 18 18 18 17 14 10 7 5 4 3 3 4 5 7
9 13 17 20 21 22 24 25 27 26 23 25 27 26 25 23 22 21 19 18 17 15 14 16 17 17 17 17 17 16 15 14 11 8 8 9 8 8 9 10 11 11
8 10 14 18 20 23 25 26 26 27 25 25 26 27 24 21 18 17 15 11 8 7 6 8 12 15 15 16 16 14 13 12 12 12 12 11 9 10 12 14 14 13
9 9 11 13 14 17 22 23 23 24 23 21 20 20 18 15 13 13 11 9 8 10 11 11 12 14 13 13 14 13 12 13 14 15 14 12 11 11 13 13 12 11
10 10 10 10 10 11 14 17 18 18 17 15 14 13 14 15 15 14 15 14 14 16 16 15 13 12 12 12 12 12 12 13 13 14 13 12 12 12 12 11 10 9

ECMWFNIL_850_spd_087.txt.gz
Wind_Speed
22 22 22 22 20 18 17 16 14 13 12 13 16 16 16 16 16 17 17 16 16 16 16 16 16 15 15 14 14 13 13 13 14 14 14 14 14 14 13 12 11 11
21 22 22 22 20 17 17 15 14 13 12 14 17 16 15 15 16 16 16 16 17 17 17 16 16 16 14 14 14 14 14 14 14 14 15 15 15 14 14 13 12 12
21 22 22 21 19 17 17 17 14 13 13 15 18 17 16 16 16 15 16 17 17 17 17 17 16 16 15 15 14 14 13 12 13 13 13 14 14 14 13 13 13 12
21 20 20 20 19 17 18 19 16 16 16 17 18 17 17 17 17 16 17 18 17 17 17 17 17 17 16 15 14 13 12 12 12 12 12 13 12 12 12 12 12 12
19 19 19 20 19 17 18 19 18 19 19 19 18 17 17 18 18 18 18 18 18 18 18 17 18 18 16 15 13 12 11 12 13 13 12 12 12 11 11 11 11 11
19 19 19 19 18 16 17 19 19 20 21 20 19 19 19 19 19 19 18 18 19 19 18 17 17 17 16 15 13 11 10 11 13 13 13 12 12 11 11 11 11 11
20 19 19 19 18 16 17 19 20 20 21 21 20 20 20 20 19 18 18 18 18 17 16 16 15 15 14 14 12 11 10 12 13 13 13 12 12 11 11 11 11 10
20 19 18 18 17 17 18 20 20 20 21 22 21 19 18 18 18 18 18 18 17 16 16 16 16 15 14 14 13 11 11 12 13 13 12 11 11 10 10 10 10 10
18 17 17 16 16 17 19 20 20 20 21 22 21 19 17 17 17 17 17 17 17 18 18 17 17 16 15 14 13 12 12 13 13 13 12 11 9 9 8 9 10 9
13 13 14 15 15 17 19 20 20 20 21 21 20 18 17 17 17 17 17 17 18 18 19 19 18 16 14 13 13 14 14 14 14 13 12 10 8 7 7 7 8 8
10 10 12 15 15 16 18 20 21 20 21 20 20 19 17 17 18 19 17 17 17 18 19 18 17 16 14 14 14 15 15 14 13 12 11 10 7 5 5 7 8 8
10 11 13 16 16 16 17 19 21 21 22 21 20 17 16 17 19 19 17 16 18 19 18 18 18 16 14 13 14 15 14 13 12 11 10 9 7 5 6 8 9 9
13 13 15 16 16 16 17 19 20 20 21 21 19 17 16 18 19 18 17 18 21 21 19 18 18 16 15 14 14 13 13 12 12 12 11 9 7 7 8 9 9 10
14 15 16 15 16 17 19 20 20 18 17 18 19 18 17 18 18 17 20 23 25 23 21 19 18 18 17 16 14 13 12 13 13 12 12 10 9 9 9 9 10 11
13 15 17 17 16 18 19 19 20 18 15 17 19 18 17 17 17 18 22 25 25 24 22 21 19 19 19 17 16 15 13 12 13 14 13 11 10 10 10 9 10 10
12 13 17 19 18 18 19 19 20 20 18 19 21 19 18 20 19 18 20 21 24 25 23 21 20 19 18 18 17 17 14 12 13 15 14 11 10 11 11 10 10 10
10 10 15 20 19 19 20 19 19 20 20 22 23 21 21 21 19 18 19 18 21 23 22 21 20 16 16 19 19 17 14 12 14 16 15 12 11 11 11 10 10 10
8 8 12 18 20 19 20 19 18 20 21 24 25 23 21 22 20 19 19 18 19 20 20 20 18 15 17 20 19 16 14 13 14 15 14 13 13 12 11 11 10 9
7 7 11 17 20 20 21 21 21 22 21 23 25 24 22 22 21 19 19 19 19 18 18 19 17 16 17 18 17 15 14 14 15 15 15 15 15 14 13 13 11 9
12 10 12 17 20 22 23 24 24 23 23 24 26 25 24 22 21 20 20 20 20 19 18 18 17 16 16 16 16 16 15 15 16 16 16 17 16 16 14 12 11 9
8 10 12 16 19 22 23 24 24 23 24 27 27 25 25 23 20 19 19 20 21 20 19 18 18 17 16 16 16 16 16 16 16 15 16 16 15 12 9 7 7 5
1 6 10 15 18 20 20 21 23 23 24 26 29 27 25 23 20 19 20 21 22 21 20 19 19 19 19 18 18 17 16 16 17 17 16 13 10 8 6 5 4 3
3 5 8 11 14 19 20 19 21 24 23 22 26 28 26 24 22 20 22 22 22 22 21 21 21 21 21 20 19 18 18 17 18 18 15 10 7 6 4 3 3 3
6 6 8 9 11 17 20 17 17 20 19 19 24 27 27 26 25 25 24 23 22 21 20 21 22 21 21 21 19 19 19 19 19 17 13 10 8 6 6 7 7 8
8 8 9 12 13 16 20 19 17 18 19 19 21 24 27 27 26 25 24 23 20 17 15 16 15 13 15 17 17 17 17 17 17 15 12 10 9 8 9 9 9 13
7 8 10 12 14 17 22 24 22 22 21 19 18 19 21 18 14 13 14 15 14 10 8 9 8 6 7 9 10 11 12 12 12 12 11 11 11 12 12 12 13 15

ECMWFNIL_850_spd_093.txt.gz
Wind_Speed
22 23 22 19 19 19 17 19 22 19 15 14 15 14 12 12 15 17 19 21 21 20 19 19 19 18 18 17 17 17 17 16 15 15 16 16 16 16 15 14 13 12
23 23 21 20 20 20 17 17 19 17 15 14 14 13 13 13 15 17 20 21 21 20 19 18 17 16 16 16 16 16 16 15 14 15 16 15 15 15 14 13 11 11
23 24 22 20 20 19 16 15 15 14 13 14 13 14 15 16 19 19 20 20 20 20 19 18 17 16 16 15 15 14 15 15 14 14 14 13 13 12 12 11 11 11
18 19 19 17 17 17 16 14 12 12 12 13 14 15 16 18 20 21 20 20 19 19 18 18 17 15 15 14 14 14 15 15 14 13 13 12 12 12 11 11 10 10
12 11 11 12 14 15 14 11 10 11 13 15 15 16 17 18 19 20 20 19 19 18 17 17 16 15 15 14 14 13 13 13 12 12 12 12 12 11 11 11 11 11
12 8 5 5 8 9 8 8 8 10 12 15 17 18 17 17 17 18 19 19 18 17 17 17 16 15 15 15 14 14 14 14 13 13 13 12 12 12 11 12 12 12
13 11 7 2 1 2 5 7 8 10 13 16 18 19 18 18 18 18 18 18 17 16 17 17 16 16 15 15 15 15 14 14 13 13 13 12 12 12 12 12 12 12
10 12 10 5 1 3 8 8 9 11 15 17 18 19 19 18 17 17 17 17 16 17 17 17 16 15 14 15 16 15 13 12 12 12 12 12 12 12 11 11 12 12
6 8 8 6 3 2 7 8 9 12 16 18 18 19 19 17 17 17 17 17 17 17 17 16 15 14 14 15 15 14 12 10 10 11 12 12 12 11 11 11 12 12
4 5 6 4 3 1 4 7 9 11 15 17 18 18 18 17 17 17 17 17 18 17 17 16 15 15 15 15 14 12 11 9 8 10 11 12 11 10 10 11 11 11
4 4 5 4 3 2 4 6 8 10 14 17 18 18 17 15 15 15 16 17 18 16 16 15 15 15 15 15 13 11 10 9 9 11 11 11 10 10 10 10 10 11
2 3 3 3 3 3 4 6 7 10 14 18 18 17 15 13 13 14 15 16 15 15 14 14 13 13 13 12 11 10 10 10 11 12 12 10 10 10 10 10 11 11
1 1 3 3 2 3 4 5 6 9 14 17 18 16 14 14 15 15 14 14 13 12 11 11 10 10 10 10 9 10 11 12 13 13 12 11 10 10 10 11 11 11
0 0 1 3 3 3 4 5 6 9 13 16 17 16 15 16 17 16 15 14 13 11 10 9 9 9 9 9 10 11 13 13 13 13 13 12 11 9 9 11 12 12
2 1 1 1 3 4 4 5 7 10 14 16 17 17 16 16 16 16 16 14 12 11 10 10 10 10 10 11 12 13 14 14 14 13 13 13 11 10 10 11 12 12
5 4 3 2 1 3 4 5 7 10 13 15 16 17 16 15 16 16 15 13 12 11 10 10 11 12 12 13 13 13 14 14 14 13 13 12 10 9 10 11 12 12
9 8 8 7 5 6 5 5 7 7 10 12 13 15 15 15 17 17 15 12 10 9 9 10 13 14 14 13 12 12 13 14 13 13 13 12 10 8 9 11 13 15
14 12 11 10 8 9 7 6 6 6 10 12 13 14 14 16 18 16 13 11 10 9 10 13 14 14 13 12 11 11 12 12 12 13 13 12 10 8 10 13 17 19
21 18 16 12 10 9 7 5 5 6 10 14 14 13 14 16 15 12 10 9 10 11 12 12 13 13 12 11 10 10 10 10 11 12 13 11 9 9 12 17 20 20
25 23 20 17 13 9 6 4 4 5 9 14 15 15 14 13 11 8 8 9 11 12 12 11 12 11 10 10 11 10 10 10 10 12 14 12 10 12 16 19 20 19
26 25 22 20 17 13 7 5 4 3 4 6 11 14 13 13 12 9 9 10 11 11 11 11 11 10 10 10 11 11 11 9 10 13 14 13 12 15 17 18 18 16
26 26 24 21 18 14 10 7 5 3 3 2 3 7 8 11 14 12 9 9 8 8 9 10 10 10 10 9 10 12 12 11 13 16 16 15 15 17 18 18 17 15
25 26 25 21 17 14 11 10 7 5 6 6 4 3 3 6 12 12 9 7 6 7 8 8 8 9 9 9 10 12 11 12 15 18 17 17 18 19 19 19 17 16
24 24 25 22 17 13 11 10 9 8 10 9 6 5 5 3 9 9 7 5 4 5 6 6 7 8 9 10 11 11 12 15 18 20 20 21 22 22 21 19 17 16
23 23 24 23 19 14 10 9 9 9 9 10 7 4 2 3 7 8 7 6 5 6 6 6 7 10 11 11 12 13 15 16 17 18 17 15 15 17 17 16 14 11
22 22 21 21 19 16 11 9 10 11 10 11 11 9 7 9 9 7 6 7 7 8 9 10 11 14 14 14 14 14 14 12 9 9 9 7 8 11 13 13 11 8

ECMWFNIL_850_spd_096.txt.gz
Wind_Speed
9 10 12 14 18 20 19 16 16 17 16 15 16 15 14 13 13 14 15 16 18 18 17 18 20 23 23 22 21 20 20 21 21 20 19 20 20 20 20 20 18 17
9 10 11 11 12 15 16 16 16 17 16 16 16 16 15 15 15 13 12 15 16 16 17 18 19 21 21 21 21 20 21 22 21 20 20 19 19 18 19 18 16 14
9 11 11 11 10 11 12 13 14 15 15 16 16 17 16 16 16 14 13 14 16 17 18 19 20 21 21 21 20 20 21 22 21 20 20 19 18 17 18 19 17 16
8 9 9 10 11 11 11 11 13 14 15 16 17 17 17 15 15 16 16 17 17 18 19 20 21 21 21 21 20 19 20 20 20 20 20 20 19 18 19 19 17 17
7 8 9 10 10 11 12 12 13 13 14 15 16 16 16 14 14 16 18 19 19 18 20 21 20 20 21 20 19 18 18 18 19 19 18 18 18 18 20 18 16 16
7 7 8 9 9 10 11 12 12 12 12 13 15 15 14 13 13 16 18 19 20 19 20 21 20 20 20 19 19 19 18 18 18 17 17 17 17 16 16 15 14 16
6 7 7 8 8 8 9 10 11 10 11 12 14 15 13 11 12 16 18 19 19 17 18 19 19 19 19 19 19 19 18 17 17 17 16 15 13 13 13 13 13 13
7 6 5 6 7 7 8 9 9 9 10 12 14 14 13 11 13 16 17 17 17 15 15 16 16 17 19 19 19 18 17 16 17 18 16 13 12 13 13 13 13 12
8 6 5 5 5 6 7 7 7 7 8 9 11 12 12 13 14 16 16 16 16 16 16 16 15 16 17 17 17 17 16 16 16 16 16 15 14 14 14 14 13 13
8 7 6 5 4 5 6 6 5 6 7 9 10 11 13 14 15 16 16 17 17 15 16 16 16 16 15 15 15 15 15 14 13 13 13 14 14 14 14 13 13 12
9 8 6 5 4 3 4 5 5 6 7 8 10 12 14 15 15 15 16 17 16 15 16 17 16 15 14 14 15 14 14 13 12 11 11 11 12 13 13 12 12 12
8 7 5 5 4 3 3 4 5 6 7 8 10 13 13 13 14 15 15 15 15 16 17 16 14 13 13 13 13 12 12 12 10 10 11 12 12 11 12 12 12 12
6 6 5 5 5 4 3 3 4 6 6 7 10 12 13 13 13 13 14 14 14 14 15 15 13 12 13 12 11 11 11 10 9 11 12 11 10 11 11 12 12 12
5 6 6 5 5 4 4 4 4 5 5 7 10 11 11 11 11 12 14 15 15 14 16 15 12 12 12 12 10 10 10 9 10 12 12 10 9 10 11 12 12 11
7 7 8 5 4 4 4 4 5 6 6 8 9 9 10 11 11 12 14 14 14 14 14 14 12 11 12 11 10 10 10 11 12 12 12 10 10 10 11 12 12 13
10 8 8 7 5 3 2 3 5 6 7 8 9 11 12 12 12 12 13 13 13 13 13 13 11 10 9 10 11 12 12 13 13 13 12 11 11 10 11 11 12 14
12 10 9 8 8 8 5 2 4 5 5 7 8 9 12 12 12 14 15 14 13 12 12 10 9 9 9 10 11 12 14 14 13 12 12 11 10 10 10 10 11 13
14 11 11 10 10 10 9 6 5 4 4 7 6 6 9 11 13 15 16 15 12 10 9 8 9 11 12 11 12 12 13 13 12 12 12 11 11 10 9 10 11 13
17 13 12 12 12 12 11 9 9 8 5 6 7 5 7 10 12 15 15 14 10 7 7 8 11 13 12 11 11 11 11 11 11 11 11 12 12 11 9 9 11 14
21 15 14 14 14 13 12 11 10 10 9 8 6 5 7 9 10 12 12 11 10 9 10 11 12 12 11 10 9 9 10 10 10 11 12 11 10 8 8 9 13 17
22 17 16 17 15 14 13 11 10 10 11 12 8 2 8 10 9 9 11 10 10 10 10 10 12 11 10 9 8 7 8 9 9 10 12 11 10 9 11 14 18 20
24 20 18 18 16 15 15 14 13 14 15 16 13 9 11 13 12 12 12 10 9 9 11 11 10 9 8 8 7 6 7 8 9 11 13 13 12 12 16 20 22 22
25 23 20 19 17 16 15 14 14 15 15 15 13 10 10 11 11 11 11 9 6 5 7 10 9 7 6 5 5 7 9 9 9 12 15 16 14 14 17 22 24 22
25 25 23 21 19 16 14 12 13 13 12 12 12 11 10 10 9 8 8 8 7 4 4 6 6 5 4 4 5 6 7 9 11 14 19 20 19 19 21 21 19 18
24 25 25 23 21 18 15 14 14 14 12 11 10 10 11 9 7 7 6 5 6 7 7 8 7 6 5 4 5 5 6 9 11 14 17 18 18 20 20 18 16 17
23 24 25 24 22 20 18 17 16 14 12 10 11 12 12 10 8 9 7 4 3 4 6 8 9 9 8 6 6 6 7 8 8 8 9 10 13 14 14 16 18 17

ECMWFNIL_850_spd_102.txt.gz
Wind_Speed
9 10 12 14 15 16 17 19 20 21 22 24 25 26 27 28 29 29 27 25 25 26 26 25 24 23 23 23 24 23 24 24 23 24 25 25 24 23 23 24 23 21
9 10 11 13 14 16 19 20 20 22 25 26 27 28 28 29 30 29 25 23 24 26 24 23 24 24 23 23 23 22 22 23 23 24 24 24 24 23 24 23 21 20
10 10 11 12 13 15 18 20 21 22 25 27 28 29 29 30 30 28 25 22 23 26 25 22 23 24 23 22 22 21 21 22 22 21 22 23 21 21 21 21 19 19
11 11 11 12 13 15 18 20 22 23 26 28 29 29 29 28 27 26 24 21 22 26 26 23 23 23 22 21 20 19 21 22 22 20 21 21 18 17 17 18 18 18
13 13 13 13 14 15 17 20 22 24 26 27 27 26 25 24 23 22 21 20 21 24 23 21 22 22 20 19 17 17 19 20 20 20 19 17 15 14 14 15 16 17
13 13 14 14 14 15 16 18 21 23 25 25 24 23 23 21 20 18 18 19 20 22 22 20 21 20 18 16 15 16 17 17 16 16 15 13 13 13 14 15 17 18
14 14 14 13 13 14 15 17 19 21 23 23 22 22 21 20 19 18 18 18 19 21 20 18 16 16 14 12 11 12 12 11 10 9 10 10 11 12 13 14 17 19
15 14 13 13 14 15 15 17 18 20 22 22 22 22 20 19 18 18 17 17 17 18 16 14 13 12 11 9 8 9 8 8 7 6 7 8 8 10 12 13 17 19
15 14 14 14 15 15 15 16 18 19 20 21 21 21 20 17 17 17 17 15 12 12 9 7 9 9 8 8 7 7 6 6 6 7 9 10 9 11 13 15 18 19
15 14 14 15 15 16 15 15 17 18 18 19 19 20 18 16 15 15 15 12 8 7 7 5 6 6 5 6 6 5 5 5 6 7 9 9 9 10 12 14 15 15
13 11 12 13 13 14 14 14 15 16 16 17 17 17 17 15 13 12 11 10 7 7 8 6 4 3 3 4 4 4 5 5 5 6 7 8 8 8 9 10 11 11
14 11 9 9 11 12 12 12 13 14 14 15 16 16 15 14 13 11 9 8 7 6 5 4 3 2 2 2 2 2 3 5 5 5 5 6 6 8 8 8 10 11
16 13 10 9 12 14 13 12 12 12 13 14 14 14 13 12 12 12 9 7 6 5 4 1 1 2 2 1 1 0 2 3 4 3 3 4 5 7 8 9 10 11
16 15 13 11 12 13 13 12 12 12 12 13 11 10 11 11 11 11 10 8 6 5 4 2 0 1 1 1 2 2 1 2 2 2 1 2 4 6 8 9 10 11
17 16 14 13 13 13 13 13 13 12 11 11 9 8 8 8 8 8 8 8 6 4 3 2 1 2 2 2 3 2 2 1 0 1 1 2 3 4 6 9 10 11
18 16 14 14 14 15 16 16 15 12 10 10 9 9 8 7 7 7 6 5 5 3 3 4 3 3 4 4 3 4 4 3 3 4 4 5 5 4 6 9 10 10
17 16 16 16 17 18 18 18 17 14 13 12 12 12 12 10 10 9 7 6 6 4 3 4 5 5 6 4 3 5 7 5 4 4 4 6 5 3 5 7 7 6
17 18 18 19 19 20 20 20 20 19 17 17 17 17 16 14 14 12 9 8 8 8 6 6 7 7 7 5 3 3 5 5 3 2 3 5 5 3 0 3 4 3
18 18 19 20 20 20 20 20 22 22 21 20 20 20 20 20 19 17 13 12 12 12 12 10 8 7 7 6 5 3 4 4 3 4 4 5 4 3 2 1 6 5
18 18 19 19 19 19 19 20 22 23 22 21 19 19 20 22 22 21 18 16 14 13 12 9 7 8 9 7 8 8 7 6 6 6 6 7 4 2 2 3 10 7
19 19 19 19 19 20 20 20 22 22 22 21 20 19 19 20 20 19 17 15 13 12 12 10 8 8 8 6 8 10 10 9 9 9 10 10 8 5 5 4 9 10
21 21 21 21 21 21 21 21 21 20 20 20 20 20 19 19 19 18 17 15 13 12 13 12 10 8 6 3 4 7 8 10 11 11 12 12 11 9 9 7 5 10
21 22 23 23 24 24 24 23 22 20 19 19 20 19 19 19 19 19 17 16 14 13 14 13 11 10 8 6 6 7 6 8 10 11 12 13 14 13 11 8 3 7
20 22 23 24 25 26 25 24 23 22 21 20 19 19 19 20 20 19 18 17 15 14 14 12 12 13 13 12 12 11 8 5 6 9 11 12 13 13 12 9 3 4
21 22 22 23 24 23 23 23 22 22 21 21 21 20 20 20 20 19 18 18 17 15 13 12 12 13 14 14 14 14 12 9 7 7 8 9 9 10 10 8 5 2
22 22 21 21 21 20 20 20 20 20 20 20 21 20 20 20 20 19 18 19 19 17 16 15 14 13 13 13 12 13 13 12 11 10 10 9 8 7 7 6 4 3

ECMWFNIL_850_spd_105.txt.gz
Wind_Speed
7 8 9 9 9 9 10 12 15 17 18 20 22 24 25 26 27 27 27 26 26 26 24 24 24 22 22 23 23 22 22 22 23 23 24 24 25 27 29 29 28 26
9 9 9 10 9 9 11 13 15 17 18 19 22 24 25 25 25 25 25 24 23 22 19 20 21 20 20 20 19 20 21 22 23 22 23 24 23 25 29 29 29 28
9 9 9 9 9 10 11 13 15 17 18 20 22 24 23 23 24 23 23 22 19 17 15 15 17 19 20 18 17 18 19 21 22 23 24 24 25 27 28 28 29 29
11 11 10 10 9 10 11 13 15 16 18 20 22 23 23 23 23 23 22 21 18 14 13 13 15 17 18 16 15 15 16 18 21 22 24 25 26 27 27 25 26 27
12 12 11 10 10 11 12 13 15 17 18 19 21 22 22 22 22 21 21 20 17 13 12 13 14 15 15 14 13 12 14 17 19 20 24 28 28 26 25 23 23 24
11 11 10 11 11 12 13 13 15 16 18 19 20 21 21 21 21 20 20 20 16 13 13 13 12 11 10 10 9 9 11 14 16 17 20 23 25 21 16 15 16 18
11 10 11 11 12 12 13 13 14 16 17 18 19 19 20 20 20 19 20 20 17 15 15 12 9 8 7 6 4 5 8 10 10 10 7 5 12 14 11 11 11 12
10 11 12 11 11 12 12 12 13 15 17 18 17 18 18 19 19 18 18 18 17 16 16 14 10 9 9 8 6 5 5 4 4 3 4 5 5 8 9 10 11 12
8 10 11 11 11 12 12 12 13 13 15 16 17 17 17 17 17 17 16 16 15 14 13 12 11 10 10 9 7 7 5 2 2 2 1 2 4 6 5 5 7 9
9 9 10 10 11 12 13 13 13 13 13 15 16 16 15 15 16 15 14 14 14 13 11 10 9 8 8 7 7 7 5 3 3 3 3 4 4 5 5 6 7 9
12 11 11 12 13 14 14 14 14 14 14 13 13 13 13 13 15 14 14 14 13 12 11 10 8 7 7 7 7 7 5 3 4 4 4 5 4 3 5 8 10 11
15 14 14 14 15 16 15 14 13 13 13 12 10 10 12 13 14 15 14 14 12 10 10 10 8 8 8 7 7 7 6 4 4 5 5 3 3 2 4 5 4 6
17 16 15 15 16 16 15 14 13 12 12 11 10 9 10 13 14 15 15 13 11 10 9 8 8 8 9 9 7 7 6 5 5 6 6 4 3 1 2 3 3 5
16 15 16 16 16 16 15 15 14 12 11 11 11 11 11 13 13 13 14 13 11 11 10 8 9 10 10 11 9 7 6 5 6 7 8 7 5 3 2 2 3 5
16 16 17 18 17 17 17 17 16 14 12 11 12 12 12 12 11 11 12 12 12 12 10 9 11 12 11 12 11 10 8 6 7 8 10 9 6 5 5 4 3 4
17 18 19 20 21 21 21 21 20 17 15 14 14 14 13 13 13 12 13 14 14 14 12 11 12 13 13 13 13 13 11 9 9 10 11 9 7 7 7 6 5 4
17 19 20 22 23 24 24 23 22 21 21 21 20 19 18 17 17 16 17 17 16 15 14 14 14 15 15 14 13 14 13 11 11 11 12 12 10 9 10 7 4 3
18 19 21 22 23 24 24 23 22 22 23 24 23 23 21 20 20 19 19 19 18 17 17 17 18 17 17 16 15 15 15 14 14 15 16 16 14 11 10 7 4 4
18 19 21 21 22 23 23 22 22 21 22 23 22 21 20 20 20 20 20 20 19 17 16 18 19 19 18 17 17 17 16 16 17 19 20 20 18 13 10 7 5 6
18 19 20 20 20 21 21 21 21 21 21 21 21 21 21 21 21 20 20 20 19 17 16 17 19 19 18 17 16 17 17 17 18 19 21 22 19 14 11 10 7 7
19 20 20 20 19 20 20 20 21 21 21 21 21 22 22 22 21 20 19 19 20 19 18 19 20 20 18 17 16 14 14 16 17 17 19 20 19 15 12 10 7 6
22 22 22 21 20 19 19 19 19 20 21 20 20 21 22 21 21 20 19 19 19 18 19 20 21 20 19 19 17 13 11 11 12 13 13 14 15 15 13 10 7 6
23 23 24 23 22 21 21 21 21 21 21 21 20 21 22 22 22 21 21 20 19 18 19 19 20 21 20 20 20 17 14 13 13 12 11 11 12 13 13 11 9 10
21 21 22 22 23 24 23 23 23 23 22 22 21 22 22 22 22 22 22 23 23 22 21 20 20 21 20 20 20 19 18 17 16 15 15 14 13 13 13 11 9 9
20 20 21 21 22 23 23 23 23 23 22 22 21 21 21 21 20 19 21 24 25 25 25 24 24 23 22 21 20 19 17 17 16 17 17 15 13 12 12 11 10 8
21 21 21 21 21 21 21 22 22 22 22 22 22 23 22 22 21 20 21 23 24 25 25 26 26 25 24 23 22 20 19 17 16 18 18 15 12 11 10 10 10 10

ECMWFNIL_850_spd_111.txt.gz
Wind_Speed
17 16 16 16 16 16 15 15 15 15 14 13 13 15 16 17 17 18 19 19 20 21 23 24 24 23 22 21 20 19 18 18 19 19 18 19 21 22 23 23 24 25
13 13 13 12 11 11 11 12 12 11 10 11 13 15 15 15 16 17 17 18 19 20 22 23 23 21 19 19 19 18 17 18 18 17 16 18 19 21 22 22 22 23
8 9 8 8 8 8 9 10 10 8 9 11 12 13 14 14 15 16 16 17 18 18 20 21 20 18 17 17 16 15 15 17 17 16 16 17 17 18 20 21 22 23
5 6 6 7 8 9 9 10 8 7 8 10 10 12 13 13 14 15 15 16 17 18 18 18 18 18 17 17 15 14 14 14 13 13 14 15 15 17 20 21 22 22
5 5 5 6 7 8 8 8 8 7 7 9 9 11 13 13 13 15 16 16 17 17 17 17 17 17 17 16 16 15 13 12 12 11 12 13 13 14 16 17 19 19
5 5 5 4 4 6 8 8 8 7 7 8 9 10 11 12 13 15 16 16 16 17 17 16 17 16 16 16 16 16 13 13 13 13 14 14 12 11 11 10 9 11
3 3 3 2 3 6 8 8 7 6 6 8 9 9 9 11 13 15 16 16 16 16 16 16 17 16 16 16 16 15 14 13 13 13 13 14 14 13 11 11 11 10
1 1 1 2 4 6 7 6 6 6 7 8 9 9 9 11 13 14 15 16 15 15 15 16 17 16 16 16 16 16 15 14 14 14 13 12 12 13 12 12 12 12
1 1 1 2 3 4 5 5 6 6 7 9 10 11 10 11 13 14 15 15 16 16 16 17 17 17 16 16 17 17 17 16 16 14 13 12 10 11 12 11 11 11
1 1 1 1 2 3 4 5 6 7 9 10 11 12 12 13 14 15 16 17 17 18 18 18 18 17 16 16 17 17 17 17 16 14 13 12 10 10 11 12 11 10
3 3 2 2 2 3 4 6 8 9 9 9 11 13 14 15 15 15 17 18 18 17 18 18 18 17 17 17 17 17 16 16 15 13 12 11 10 10 12 14 13 10
5 4 3 2 3 4 6 7 9 9 9 10 12 14 15 15 15 15 16 16 16 15 15 15 16 17 18 19 18 17 17 15 14 13 13 13 13 12 13 14 14 12
5 5 5 5 6 7 8 8 9 10 12 14 15 14 14 15 14 14 14 14 14 14 14 15 16 18 19 20 19 18 17 16 16 16 16 16 16 14 14 14 14 14
8 9 9 10 11 11 11 12 13 14 15 15 14 13 14 14 13 13 13 13 15 15 16 17 18 19 20 20 19 19 19 18 17 17 18 18 18 17 16 16 16 15
13 13 14 14 14 15 15 16 16 15 14 13 12 13 13 12 12 12 12 13 14 15 16 17 19 20 20 20 20 20 20 20 20 20 21 21 21 21 20 19 18 17
16 15 15 16 15 16 16 16 15 13 12 12 13 13 12 12 12 11 11 12 12 13 14 15 17 19 18 17 19 19 18 17 17 18 20 21 21 22 23 22 20 18
15 15 15 15 15 14 14 14 13 12 12 12 12 13 13 12 12 11 12 12 11 12 12 13 16 17 16 16 17 17 17 16 15 16 16 17 19 21 23 23 21 19
15 14 14 14 14 14 13 12 11 11 11 11 12 13 13 13 13 13 13 13 13 13 14 15 17 17 16 16 17 17 17 16 16 16 17 17 17 19 20 21 21 20
14 13 14 14 14 13 12 11 10 10 10 11 11 12 12 13 14 14 14 15 15 16 17 19 20 20 19 19 19 19 18 18 18 18 18 19 19 19 19 20 21 21
13 13 14 14 13 13 12 11 11 12 12 12 12 12 11 12 13 14 15 16 17 18 19 20 22 22 21 21 20 20 19 19 20 20 20 20 21 20 20 21 22 22
12 13 13 14 14 13 13 13 13 13 14 14 13 13 13 14 14 14 15 16 17 17 18 20 21 21 20 20 19 19 19 18 18 19 19 20 20 20 20 21 21 21
13 13 14 14 14 12 12 13 13 13 14 14 14 14 15 15 15 16 16 16 16 16 16 18 19 19 18 18 17 17 16 16 16 16 16 18 19 19 19 18 19 20
14 13 13 13 12 11 12 13 13 13 14 13 12 13 14 15 15 16 16 15 15 16 16 17 18 18 18 17 17 16 15 15 16 15 15 17 19 19 19 18 18 19
13 12 12 12 12 13 14 14 14 14 14 13 13 14 15 16 16 17 17 18 18 19 19 19 20 20 19 18 18 17 16 16 17 16 17 18 19 19 19 19 19 19
13 13 13 14 15 16 16 16 16 16 15 15 15 16 17 18 18 18 20 21 22 22 22 22 23 23 23 22 22 21 20 19 18 18 18 18 18 18 19 19 19 20
14 14 15 15 16 17 17 17 17 16 16 16 16 17 17 18 18 19 21 22 22 22 23 23 24 24 25 25 25 25 24 24 23 24 23 21 20 20 20 21 21 22

ECMWFNIL_850_spd_114.txt.gz
Wind_Speed
15 16 17 18 18 18 18 18 18 17 17 16 15 14 15 16 16 17 17 18 18 18 19 19 20 20 21 21 22 21 19 17 18 18 16 16 16 16 17 17 18 19
16 16 16 16 16 15 15 16 16 15 15 14 13 13 15 15 15 16 16 17 17 17 18 18 18 19 19 20 20 20 19 17 17 18 17 15 15 15 16 17 18 19
14 14 13 13 13 13 13 14 15 15 12 12 12 12 14 15 14 14 15 16 17 16 17 18 18 18 18 18 19 18 17 16 17 17 17 17 16 15 15 17 18 17
13 12 12 11 11 11 11 12 13 11 9 10 12 12 13 13 13 14 15 16 16 16 17 18 17 17 17 18 18 18 17 16 17 18 17 17 16 16 16 16 17 15
10 10 10 10 11 10 9 10 10 9 7 9 11 11 12 12 13 14 15 15 16 16 17 17 17 17 17 17 17 17 18 17 17 18 17 16 16 16 16 16 16 15
9 10 10 10 9 8 8 9 8 7 7 9 11 11 11 11 13 14 14 15 16 16 17 17 18 18 17 16 16 17 18 17 17 17 17 16 16 16 17 17 17 16
9 9 9 8 6 6 7 7 6 7 7 8 10 9 10 11 12 13 14 15 16 17 19 19 18 18 17 17 17 17 17 17 16 17 16 16 15 16 17 19 18 16
7 6 5 5 4 5 5 4 5 6 6 8 9 9 10 11 12 13 14 15 16 18 19 19 19 18 18 18 18 18 18 18 18 17 17 16 16 17 18 19 19 17
5 4 3 3 2 2 2 3 5 6 7 9 10 10 11 12 13 15 15 15 15 17 18 18 19 18 19 19 19 19 20 19 19 18 18 17 17 18 18 18 18 18
4 2 1 1 1 1 2 4 6 7 8 10 12 11 12 12 13 14 14 15 15 16 17 17 18 18 19 19 19 19 20 20 20 19 19 19 19 19 19 19 19 19
4 4 3 2 2 2 4 5 8 10 11 12 12 13 13 13 13 13 13 14 15 16 16 16 17 19 20 20 20 21 21 20 21 21 21 21 20 20 20 20 20 19
6 5 4 3 3 4 6 9 12 13 12 12 12 13 13 12 12 13 13 13 14 14 15 15 17 18 20 21 22 21 21 21 22 22 22 22 22 22 21 21 21 21
6 5 5 6 7 10 12 14 14 12 11 11 11 11 11 12 12 12 12 12 12 13 13 14 14 15 18 20 20 20 20 20 21 21 21 21 22 22 22 22 22 23
8 8 8 11 13 14 15 14 12 11 11 11 10 10 11 11 11 11 11 11 12 12 11 11 12 13 16 19 20 20 20 20 20 19 18 19 21 22 22 23 23 23
11 12 13 14 15 15 14 12 11 11 10 10 10 11 11 11 10 10 10 10 10 10 10 10 11 13 17 18 19 19 20 21 20 19 18 18 19 21 23 23 23 24
15 15 15 15 14 13 12 11 10 10 10 10 10 11 11 11 10 10 10 11 11 11 11 11 14 17 19 19 19 19 20 20 20 20 20 19 20 21 23 24 24 25
15 15 14 14 13 12 11 11 10 10 10 10 10 10 11 11 11 11 12 13 14 14 15 16 19 20 20 20 20 20 20 20 20 21 21 21 22 23 24 24 24 25
14 14 13 13 12 11 11 10 10 9 9 9 9 10 10 10 11 12 13 14 15 15 17 19 21 20 20 20 20 20 19 19 19 19 19 20 21 22 22 22 23 24
13 13 13 12 11 11 11 10 9 9 9 9 9 9 9 9 11 12 13 13 14 15 16 18 19 20 19 19 19 19 19 18 18 18 18 18 19 19 19 19 21 22
13 12 12 12 12 12 11 10 10 10 10 10 9 9 9 10 11 12 12 13 14 15 15 17 19 20 19 19 19 19 19 19 19 18 19 19 19 20 20 20 21 22
12 11 12 12 12 11 10 10 10 10 11 10 9 9 10 11 12 12 13 14 15 15 15 17 19 19 19 19 19 19 19 19 20 20 20 21 21 21 22 22 23 23
12 12 12 12 11 10 9 10 10 10 10 10 9 10 11 11 12 13 14 15 15 15 16 18 20 19 19 19 19 18 18 19 19 20 20 21 22 23 23 23 23 24
13 11 11 10 9 8 9 10 10 10 11 10 9 10 11 12 13 15 16 17 17 18 19 20 22 22 21 21 20 20 19 20 20 20 21 22 23 24 24 25 26 26
12 10 10 10 10 10 10 11 11 11 12 11 10 11 13 15 15 17 18 19 19 20 20 21 21 22 21 21 22 22 22 22 22 22 23 24 25 25 26 27 28 29
12 11 10 11 11 12 13 13 13 13 13 12 12 13 15 16 16 17 18 19 19 19 19 19 20 21 21 21 21 21 22 22 22 23 25 25 25 26 27 28 29 30
13 12 12 12 13 14 14 14 14 14 13 12 13 14 15 15 15 15 17 18 18 18 19 20 20 21 21 21 21 21 21 21 22 24 25 24 24 26 26 28 28 29

ECMWFNIL_850_spd_117.txt.gz
Wind_Speed
12 10 10 11 11 12 12 12 12 12 11 11 11 11 13 14 14 14 15 16 16 15 15 15 16 16 16 17 17 18 17 16 16 16 15 14 15 15 14 15 15 16
13 11 10 10 11 11 11 11 11 11 10 11 12 12 13 13 13 14 15 14 14 13 14 14 14 15 15 16 17 17 17 17 16 16 15 13 14 16 15 15 15 16
13 10 9 9 10 9 9 9 10 9 9 11 12 12 12 12 12 14 14 13 13 12 13 13 14 15 15 15 16 17 18 18 17 17 16 14 14 15 15 16 15 16
10 9 8 8 8 8 7 8 8 8 9 11 12 11 11 11 12 12 12 12 12 12 13 14 14 14 15 15 16 18 19 18 17 17 16 15 14 15 16 17 17 17
7 7 7 7 7 6 6 6 7 8 10 11 11 10 10 11 11 10 10 11 12 13 14 14 14 14 14 15 16 17 18 17 16 16 16 15 15 16 17 18 19 19
6 7 7 6 5 4 5 6 7 9 10 10 9 9 10 11 10 10 10 11 12 13 14 14 14 15 15 15 16 17 17 17 17 17 16 16 16 16 16 17 18 19
6 6 5 4 3 4 5 7 8 9 10 9 9 10 11 11 11 11 11 11 12 13 13 14 14 15 15 16 16 17 17 18 18 18 18 18 18 18 18 18 17 18
4 3 2 2 3 4 5 7 8 9 10 10 11 11 11 11 11 12 12 12 12 12 13 14 15 16 16 17 18 19 19 19 19 20 20 20 20 20 19 19 19 19
3 1 1 2 3 5 6 6 8 10 12 12 12 12 12 11 11 12 12 11 11 11 12 13 14 16 16 17 19 20 20 20 20 20 20 20 20 21 21 21 21 21
2 0 1 3 4 5 6 9 12 13 13 13 12 12 11 11 11 11 11 11 11 11 12 13 13 14 15 16 17 18 19 20 19 20 20 20 21 22 23 23 23 23
2 2 3 4 5 7 10 12 13 12 11 11 11 10 11 11 10 10 10 10 11 11 12 12 13 13 14 15 16 18 19 19 19 20 20 20 21 22 23 23 23 25
3 4 4 5 8 11 12 12 11 10 10 10 10 9 10 10 10 10 10 10 11 11 11 12 12 13 14 16 18 19 20 20 20 20 20 20 20 21 22 23 25 27
5 5 6 10 12 13 12 11 10 10 10 10 9 9 9 9 9 10 10 10 11 11 11 12 13 15 17 18 19 20 20 19 19 19 20 20 20 21 23 24 26 28
7 9 12 14 14 12 11 10 10 9 9 9 9 9 10 10 10 11 11 12 12 12 12 13 15 17 19 20 21 21 20 19 19 19 20 20 20 21 23 24 25 26
11 14 15 15 13 11 10 9 9 9 9 9 9 10 10 11 11 12 13 13 13 13 13 14 15 18 20 21 21 21 21 20 20 19 19 19 19 20 22 23 24 25
15 15 15 14 12 11 10 9 9 9 9 9 9 10 10 11 11 11 12 13 13 13 14 14 17 19 20 20 20 21 21 20 20 20 19 19 19 20 21 22 23 24
16 15 15 13 12 10 9 9 9 9 9 9 9 9 9 10 10 10 11 12 13 13 14 16 18 20 19 19 19 19 19 19 19 19 19 20 20 20 21 22 23 23
16 15 14 12 11 10 9 9 8 8 8 8 8 9 9 9 10 11 12 12 13 13 14 16 19 19 18 18 18 18 18 18 18 18 19 20 21 21 22 23 24 25
15 14 12 11 10 9 9 9 8 8 8 9 9 9 9 9 10 11 12 13 13 14 15 17 19 18 18 18 18 18 18 18 18 19 20 22 23 23 24 24 25 25
14 13 12 11 11 10 10 9 9 9 10 10 10 9 9 10 11 12 13 14 14 15 16 18 19 19 19 19 19 19 20 20 20 21 22 23 25 25 26 27 28 27
14 13 12 12 11 11 10 10 10 10 10 10 9 9 10 11 12 13 14 15 16 16 17 19 20 20 19 20 20 20 20 21 21 22 24 25 26 27 28 29 30 30
14 13 12 12 11 11 10 10 10 10 10 9 9 10 12 13 14 15 16 16 16 16 17 19 19 19 18 18 19 19 20 21 22 23 24 26 27 28 29 30 30 31
14 12 12 12 11 11 10 11 11 11 11 11 11 12 13 13 14 15 15 15 15 15 16 17 18 17 17 17 17 18 19 21 22 23 25 26 27 28 28 29 30 30
13 12 11 12 12 11 11 12 12 12 12 12 11 12 13 13 14 14 14 14 15 16 16 17 18 18 18 18 18 19 20 22 23 23 25 26 27 27 27 28 28 29
12 12 11 12 12 13 13 13 13 13 12 11 11 12 12 13 13 13 14 15 16 17 18 18 20 20 20 20 21 21 22 23 24 25 26 26 27 27 27 27 28 28
13 13 13 13 14 15 15 14 13 13 12 11 11 11 12 13 13 13 14 16 17 18 19 20 20 21 21 21 22 23 23 24 26 26 27 26 26 27 27 28 28 28

ECMWFNIL_850_spd_123.txt.gz
Wind_Speed
4 5 5 6 5 5 5 5 4 4 4 4 3 2 3 4 5 6 6 6 7 6 7 8 9 11 11 10 11 10 10 10 10 9 9 11 11 12 14 16 17 19
5 6 5 5 4 5 6 6 5 4 4 5 5 4 5 5 6 6 6 6 6 6 7 9 9 11 11 10 9 8 9 11 13 12 12 14 15 14 16 17 18 19
6 6 6 5 5 6 7 7 5 4 5 6 7 6 6 6 6 6 6 6 6 7 8 9 10 10 11 11 10 10 11 13 14 14 14 16 17 17 17 18 19 19
7 7 6 6 7 7 6 6 5 5 6 7 7 7 7 6 6 6 6 6 7 8 9 9 10 10 10 11 11 12 13 13 13 14 14 16 17 17 17 18 19 19
7 7 6 7 8 7 6 6 5 6 8 8 8 7 7 7 6 6 7 7 8 8 9 9 9 10 10 11 11 12 12 11 12 14 15 16 17 18 18 18 19 20
6 7 7 8 8 7 6 6 6 8 10 9 9 8 8 7 7 8 8 8 9 9 10 10 9 10 10 11 11 11 11 12 13 15 15 16 17 18 19 19 19 20
6 7 8 9 8 7 7 8 9 11 11 10 10 9 8 7 8 9 8 8 9 10 11 11 10 10 10 10 10 10 11 13 14 14 14 16 16 17 18 19 20 20
7 9 9 9 9 9 9 10 12 12 11 11 10 9 7 8 9 9 9 10 9 9 10 11 11 10 9 10 10 11 12 13 13 14 15 16 15 16 17 19 20 21
9 10 10 10 10 11 12 13 13 13 12 11 9 8 7 9 10 9 10 8 5 6 10 10 11 11 10 10 11 12 13 13 13 15 15 15 15 16 16 17 19 20
11 10 10 11 13 14 14 14 14 13 12 10 8 8 7 8 9 7 7 7 5 8 10 9 11 12 12 12 12 12 13 13 14 15 15 15 16 16 16 17 18 19
12 11 12 14 15 16 15 14 14 13 11 9 8 8 7 8 8 6 7 10 9 8 8 8 10 11 11 12 13 12 12 13 13 14 14 15 16 15 15 17 18 18
13 14 16 17 17 17 16 14 14 13 10 9 8 9 8 9 10 8 8 11 10 7 8 10 10 9 9 10 12 12 12 12 13 13 13 14 15 14 15 17 17 18
14 17 19 19 18 17 15 14 14 12 10 10 10 10 11 11 10 10 10 11 10 9 8 9 10 10 10 9 11 12 12 12 12 13 13 13 14 14 14 16 17 18
16 19 20 19 18 17 15 14 13 11 10 10 10 11 12 11 10 11 11 10 9 8 8 8 9 11 11 10 11 12 11 11 12 12 12 12 13 14 14 15 16 17
17 20 21 19 18 17 14 13 12 10 10 10 10 11 13 12 11 11 10 9 8 8 9 10 10 13 14 12 11 12 11 12 13 13 13 13 13 14 16 16 16 16
17 21 21 19 17 15 12 11 11 11 11 11 11 12 12 12 11 10 9 9 9 9 10 12 14 15 15 13 12 13 13 13 14 15 14 14 14 15 16 17 17 17
17 20 19 17 15 12 11 12 12 11 11 11 12 12 11 10 10 9 9 9 10 11 12 15 16 16 14 12 12 14 15 13 13 14 14 14 15 15 16 17 18 19
15 16 15 14 13 13 13 13 12 12 12 11 12 12 11 11 10 10 11 11 12 12 13 15 16 14 13 12 12 14 16 15 14 14 14 15 15 16 17 18 20 21
15 16 16 15 14 14 13 13 13 13 13 12 13 12 12 12 12 12 13 13 12 12 13 14 15 13 11 11 12 14 16 16 15 16 16 16 17 17 18 20 21 21
16 17 16 16 15 14 14 14 14 14 14 13 14 14 13 13 13 13 13 12 12 12 12 13 14 12 10 11 12 15 17 16 15 17 18 18 18 19 20 21 21 22
17 17 17 16 15 14 14 14 14 15 16 16 16 15 14 13 12 12 13 12 12 12 11 13 13 11 9 10 14 17 17 15 15 17 18 19 19 20 21 22 22 22
18 17 17 17 15 15 15 14 14 16 18 18 17 16 14 13 12 12 12 12 12 12 12 12 13 11 9 11 15 17 16 14 14 16 17 19 20 21 22 22 22 22
18 17 17 17 16 16 16 16 17 19 19 18 16 15 13 13 12 12 12 12 12 13 13 13 13 12 10 11 15 17 15 12 11 13 15 17 18 20 21 23 23 22
18 18 18 17 17 18 19 19 19 20 20 18 16 14 13 13 13 12 13 12 12 13 13 13 13 12 10 11 14 17 16 12 9 10 12 13 15 17 18 21 22 22
18 18 17 17 18 20 20 20 20 20 19 17 15 14 14 13 13 13 14 13 13 13 13 13 13 13 11 12 13 16 16 13 10 10 11 11 12 14 15 18 20 21
18 18 19 19 20 21 21 20 20 20 19 17 15 14 14 14 14 14 14 14 13 12 13 13 14 14 13 13 12 13 14 13 11 10 11 11 11 12 13 15 17 18